Time,TemperatureF,DewpointF,PressureIn,WindDirection,WindDirectionDegrees,WindSpeedMPH,WindSpeedGustMPH,Humidity,HourlyPrecipIn,Conditions,Clouds,dailyrainin,SoftwareType,DateUTC
2013-05-03 00:01:00,70.1,67.3,29.83,SE,136,1.0,2.0,91,0.00,,,0.00,Wunderground v.1.15,2013-05-03 04:01:00,
2013-05-03 00:03:00,70.1,67.3,29.83,SE,124,1.0,2.0,91,0.00,,,0.00,Wunderground v.1.15,2013-05-03 04:03:00,
2013-05-03 00:07:00,70.1,67.3,29.83,SE,129,1.0,2.0,91,0.00,,,0.00,Wunderground v.1.15,2013-05-03 04:07:00,
2013-05-03 00:08:00,70.1,67.3,29.83,SSE,151,2.0,2.0,91,0.00,,,0.00,Wunderground v.1.15,2013-05-03 04:08:00,
2013-05-03 00:09:00,70.1,67.3,29.83,SE,131,1.0,2.0,91,0.00,,,0.00,Wunderground v.1.15,2013-05-03 04:09:00,
2013-05-03 00:13:00,70.0,67.3,29.82,SE,134,1.0,2.0,91,0.00,,,0.00,Wunderground v.1.15,2013-05-03 04:13:00,
2013-05-03 00:14:00,69.9,67.2,29.82,SE,139,2.0,2.0,91,0.00,,,0.00,Wunderground v.1.15,2013-05-03 04:14:00,
2013-05-03 00:15:00,69.9,67.2,29.82,ESE,121,2.0,2.0,91,0.00,,,0.00,Wunderground v.1.15,2013-05-03 04:15:00,
2013-05-03 00:19:00,69.9,67.2,29.82,ESE,121,2.0,2.0,91,0.00,,,0.00,Wunderground v.1.15,2013-05-03 04:19:00,
2013-05-03 00:21:00,69.8,67.1,29.82,ESE,104,4.0,4.0,91,0.00,,,0.00,Wunderground v.1.15,2013-05-03 04:21:00,
2013-05-03 00:23:00,69.8,67.1,29.82,East,100,4.0,4.0,91,0.00,,,0.00,Wunderground v.1.15,2013-05-03 04:23:00,
2013-05-03 00:24:00,69.8,67.1,29.82,East,83,2.0,4.0,91,0.00,,,0.00,Wunderground v.1.15,2013-05-03 04:24:00,
2013-05-03 00:26:00,69.8,67.1,29.82,SE,125,3.0,4.0,91,0.00,,,0.00,Wunderground v.1.15,2013-05-03 04:26:00,
2013-05-03 00:29:00,69.7,67.3,29.82,SE,129,3.0,4.0,92,0.00,,,0.00,Wunderground v.1.15,2013-05-03 04:29:00,
2013-05-03 00:30:00,69.7,67.3,29.82,East,93,4.0,4.0,92,0.00,,,0.00,Wunderground v.1.15,2013-05-03 04:30:00,
2013-05-03 00:34:00,69.7,67.3,29.82,ESE,123,3.0,4.0,92,0.00,,,0.00,Wunderground v.1.15,2013-05-03 04:34:00,
2013-05-03 00:35:00,69.7,67.3,29.82,SE,138,4.0,4.0,92,0.00,,,0.00,Wunderground v.1.15,2013-05-03 04:35:00,
2013-05-03 00:37:00,69.7,67.3,29.82,ESE,103,4.0,4.0,92,0.00,,,0.00,Wunderground v.1.15,2013-05-03 04:37:00,
2013-05-03 00:38:00,69.6,67.2,29.82,SE,139,2.0,4.0,92,0.00,,,0.00,Wunderground v.1.15,2013-05-03 04:38:00,
2013-05-03 00:42:00,69.6,67.2,29.82,ESE,105,4.0,4.0,92,0.00,,,0.00,Wunderground v.1.15,2013-05-03 04:42:00,
2013-05-03 00:43:00,69.6,67.2,29.82,ESE,115,2.0,4.0,92,0.00,,,0.00,Wunderground v.1.15,2013-05-03 04:43:00,
2013-05-03 00:45:00,69.6,67.2,29.82,ESE,115,2.0,5.0,92,0.00,,,0.00,Wunderground v.1.15,2013-05-03 04:45:00,
2013-05-03 00:47:00,69.5,67.1,29.82,SE,134,2.0,5.0,92,0.00,,,0.00,Wunderground v.1.15,2013-05-03 04:47:00,
2013-05-03 00:49:00,69.5,67.1,29.82,SE,124,2.0,3.0,92,0.00,,,0.00,Wunderground v.1.15,2013-05-03 04:49:00,
2013-05-03 00:51:00,69.5,67.1,29.82,SE,135,2.0,3.0,92,0.00,,,0.00,Wunderground v.1.15,2013-05-03 04:51:00,
2013-05-03 00:53:00,69.5,67.1,29.82,SE,142,2.0,5.0,92,0.00,,,0.00,Wunderground v.1.15,2013-05-03 04:53:00,
2013-05-03 00:56:00,69.4,67.3,29.82,ESE,103,2.0,5.0,93,0.00,,,0.00,Wunderground v.1.15,2013-05-03 04:56:00,
2013-05-03 00:58:00,69.4,67.3,29.82,East,89,1.0,5.0,93,0.00,,,0.00,Wunderground v.1.15,2013-05-03 04:58:00,
2013-05-03 01:01:00,69.3,67.2,29.82,ESE,115,4.0,4.0,93,0.00,,,0.00,Wunderground v.1.15,2013-05-03 05:01:00,
2013-05-03 01:02:00,69.3,67.2,29.82,ESE,117,1.0,4.0,93,0.00,,,0.00,Wunderground v.1.15,2013-05-03 05:02:00,
2013-05-03 01:03:00,69.3,67.2,29.82,ESE,121,3.0,4.0,93,0.00,,,0.00,Wunderground v.1.15,2013-05-03 05:03:00,
2013-05-03 01:05:00,69.2,67.1,29.82,SE,128,4.0,4.0,93,0.00,,,0.00,Wunderground v.1.15,2013-05-03 05:05:00,
2013-05-03 01:08:00,69.2,67.1,29.82,East,86,2.0,6.0,93,0.00,,,0.00,Wunderground v.1.15,2013-05-03 05:08:00,
2013-05-03 01:11:00,69.1,67.0,29.82,ESE,115,3.0,3.0,93,0.00,,,0.00,Wunderground v.1.15,2013-05-03 05:11:00,
2013-05-03 01:15:00,69.1,67.0,29.82,East,80,5.0,6.0,93,0.00,,,0.00,Wunderground v.1.15,2013-05-03 05:15:00,
2013-05-03 01:17:00,69.0,66.9,29.81,ESE,117,2.0,6.0,93,0.00,,,0.00,Wunderground v.1.15,2013-05-03 05:17:00,
2013-05-03 01:20:00,69.0,66.9,29.81,East,94,1.0,3.0,93,0.00,,,0.00,Wunderground v.1.15,2013-05-03 05:20:00,
2013-05-03 01:21:00,69.0,66.9,29.81,East,97,1.0,3.0,93,0.00,,,0.00,Wunderground v.1.15,2013-05-03 05:21:00,
2013-05-03 01:23:00,69.0,66.9,29.81,ESE,105,2.0,3.0,93,0.00,,,0.00,Wunderground v.1.15,2013-05-03 05:23:00,
2013-05-03 01:25:00,69.0,67.2,29.81,ESE,117,4.0,4.0,94,0.00,,,0.00,Wunderground v.1.15,2013-05-03 05:25:00,
2013-05-03 01:26:00,69.0,67.2,29.81,ESE,102,6.0,6.0,94,0.00,,,0.00,Wunderground v.1.15,2013-05-03 05:26:00,
2013-05-03 01:30:00,69.0,67.2,29.81,East,92,3.0,3.0,94,0.00,,,0.00,Wunderground v.1.15,2013-05-03 05:30:00,
2013-05-03 01:31:00,68.9,67.1,29.81,ESE,102,4.0,4.0,94,0.00,,,0.00,Wunderground v.1.15,2013-05-03 05:31:00,
2013-05-03 01:33:00,68.9,67.1,29.81,ESE,102,5.0,5.0,94,0.00,,,0.00,Wunderground v.1.15,2013-05-03 05:33:00,
2013-05-03 01:36:00,68.9,67.1,29.80,East,89,1.0,5.0,94,0.00,,,0.00,Wunderground v.1.15,2013-05-03 05:36:00,
2013-05-03 01:38:00,68.9,67.1,29.81,East,97,2.0,5.0,94,0.00,,,0.00,Wunderground v.1.15,2013-05-03 05:38:00,
2013-05-03 01:39:00,68.9,67.1,29.80,East,97,2.0,5.0,94,0.00,,,0.00,Wunderground v.1.15,2013-05-03 05:39:00,
2013-05-03 01:40:00,68.9,67.1,29.80,ESE,114,3.0,3.0,94,0.00,,,0.00,Wunderground v.1.15,2013-05-03 05:40:00,
2013-05-03 01:43:00,68.9,67.1,29.80,ESE,104,3.0,3.0,94,0.00,,,0.00,Wunderground v.1.15,2013-05-03 05:43:00,
2013-05-03 01:44:00,68.9,67.1,29.80,ESE,105,1.0,3.0,94,0.00,,,0.00,Wunderground v.1.15,2013-05-03 05:44:00,
2013-05-03 01:45:00,68.8,67.0,29.80,ESE,106,3.0,3.0,94,0.00,,,0.00,Wunderground v.1.15,2013-05-03 05:45:00,
2013-05-03 01:46:00,68.8,67.0,29.80,SE,135,1.0,3.0,94,0.00,,,0.00,Wunderground v.1.15,2013-05-03 05:46:00,
2013-05-03 01:51:00,68.8,67.0,29.80,SE,129,0.0,2.0,94,0.00,,,0.00,Wunderground v.1.15,2013-05-03 05:51:00,
2013-05-03 01:54:00,68.8,67.0,29.80,ESE,110,3.0,3.0,94,0.00,,,0.00,Wunderground v.1.15,2013-05-03 05:54:00,
2013-05-03 01:55:00,68.7,66.9,29.80,ESE,115,1.0,3.0,94,0.00,,,0.00,Wunderground v.1.15,2013-05-03 05:55:00,
2013-05-03 01:57:00,68.7,66.9,29.80,SE,129,0.0,3.0,94,0.00,,,0.00,Wunderground v.1.15,2013-05-03 05:57:00,
2013-05-03 01:58:00,68.7,66.9,29.80,SE,128,1.0,3.0,94,0.00,,,0.00,Wunderground v.1.15,2013-05-03 05:58:00,
2013-05-03 02:00:00,68.7,66.9,29.79,SE,132,2.0,2.0,94,0.00,,,0.00,Wunderground v.1.15,2013-05-03 06:00:00,
2013-05-03 02:01:00,68.7,66.9,29.80,ESE,121,3.0,3.0,94,0.00,,,0.00,Wunderground v.1.15,2013-05-03 06:01:00,
2013-05-03 02:03:00,68.7,66.9,29.79,SE,131,1.0,3.0,94,0.00,,,0.00,Wunderground v.1.15,2013-05-03 06:03:00,
2013-05-03 02:04:00,68.7,66.9,29.80,ESE,121,1.0,3.0,94,0.00,,,0.00,Wunderground v.1.15,2013-05-03 06:04:00,
2013-05-03 02:05:00,68.7,66.9,29.79,ESE,102,1.0,3.0,94,0.00,,,0.00,Wunderground v.1.15,2013-05-03 06:05:00,
2013-05-03 02:06:00,68.7,66.9,29.79,SE,139,1.0,3.0,94,0.00,,,0.00,Wunderground v.1.15,2013-05-03 06:06:00,
2013-05-03 02:08:00,68.7,66.9,29.79,SE,139,0.0,3.0,94,0.00,,,0.00,Wunderground v.1.15,2013-05-03 06:08:00,
2013-05-03 02:09:00,68.7,66.9,29.79,SE,140,0.0,3.0,94,0.00,,,0.00,Wunderground v.1.15,2013-05-03 06:09:00,
2013-05-03 02:10:00,68.7,66.9,29.79,SE,135,1.0,1.0,94,0.00,,,0.00,Wunderground v.1.15,2013-05-03 06:10:00,
2013-05-03 02:11:00,68.7,66.9,29.79,SE,131,0.0,2.0,94,0.00,,,0.00,Wunderground v.1.15,2013-05-03 06:11:00,
2013-05-03 02:14:00,68.6,66.8,29.79,ESE,115,1.0,2.0,94,0.00,,,0.00,Wunderground v.1.15,2013-05-03 06:14:00,
2013-05-03 02:15:00,68.6,66.8,29.79,ESE,115,0.0,2.0,94,0.00,,,0.00,Wunderground v.1.15,2013-05-03 06:15:00,
2013-05-03 02:16:00,68.7,66.9,29.79,ENE,75,1.0,2.0,94,0.00,,,0.00,Wunderground v.1.15,2013-05-03 06:16:00,
2013-05-03 02:19:00,68.6,66.8,29.79,ESE,121,1.0,3.0,94,0.00,,,0.00,Wunderground v.1.15,2013-05-03 06:19:00,
2013-05-03 02:20:00,68.7,66.9,29.78,SE,127,3.0,3.0,94,0.00,,,0.00,Wunderground v.1.15,2013-05-03 06:20:00,
2013-05-03 02:21:00,68.7,66.9,29.79,SE,135,0.0,4.0,94,0.00,,,0.00,Wunderground v.1.15,2013-05-03 06:21:00,
2013-05-03 02:24:00,68.6,66.8,29.78,SSE,155,1.0,4.0,94,0.00,,,0.00,Wunderground v.1.15,2013-05-03 06:24:00,
2013-05-03 02:25:00,68.6,66.8,29.78,SSE,148,0.0,4.0,94,0.00,,,0.00,Wunderground v.1.15,2013-05-03 06:25:00,
2013-05-03 02:26:00,68.6,66.8,29.78,SE,137,1.0,4.0,94,0.00,,,0.00,Wunderground v.1.15,2013-05-03 06:26:00,
2013-05-03 02:27:00,68.6,66.8,29.78,SE,134,1.0,4.0,94,0.00,,,0.00,Wunderground v.1.15,2013-05-03 06:27:00,
2013-05-03 02:29:00,68.6,66.8,29.78,ESE,111,1.0,4.0,94,0.00,,,0.00,Wunderground v.1.15,2013-05-03 06:29:00,
2013-05-03 02:30:00,68.6,66.8,29.78,SE,129,2.0,3.0,94,0.00,,,0.00,Wunderground v.1.15,2013-05-03 06:30:00,
2013-05-03 02:32:00,68.6,66.8,29.78,ENE,67,2.0,4.0,94,0.00,,,0.00,Wunderground v.1.15,2013-05-03 06:32:00,
2013-05-03 02:34:00,68.6,66.8,29.78,SE,124,2.0,4.0,94,0.00,,,0.00,Wunderground v.1.15,2013-05-03 06:34:00,
2013-05-03 02:35:00,68.6,66.8,29.78,SE,134,3.0,4.0,94,0.00,,,0.00,Wunderground v.1.15,2013-05-03 06:35:00,
2013-05-03 02:37:00,68.6,66.8,29.78,SE,125,0.0,4.0,94,0.00,,,0.00,Wunderground v.1.15,2013-05-03 06:37:00,
2013-05-03 02:40:00,68.5,66.7,29.78,ESE,113,2.0,2.0,94,0.00,,,0.00,Wunderground v.1.15,2013-05-03 06:40:00,
2013-05-03 02:41:00,68.5,66.7,29.77,ESE,105,2.0,2.0,94,0.00,,,0.00,Wunderground v.1.15,2013-05-03 06:41:00,
2013-05-03 02:42:00,68.5,66.7,29.77,East,85,2.0,2.0,94,0.00,,,0.00,Wunderground v.1.15,2013-05-03 06:42:00,
2013-05-03 02:45:00,68.5,66.7,29.77,ESE,111,2.0,3.0,94,0.00,,,0.00,Wunderground v.1.15,2013-05-03 06:45:00,
2013-05-03 02:46:00,68.4,66.6,29.77,ESE,104,2.0,4.0,94,0.00,,,0.00,Wunderground v.1.15,2013-05-03 06:46:00,
2013-05-03 02:48:00,68.4,66.6,29.77,ESE,102,2.0,4.0,94,0.00,,,0.00,Wunderground v.1.15,2013-05-03 06:48:00,
2013-05-03 02:50:00,68.4,66.6,29.77,ESE,121,2.0,2.0,94,0.00,,,0.00,Wunderground v.1.15,2013-05-03 06:50:00,
2013-05-03 02:51:00,68.4,66.6,29.77,ESE,120,2.0,2.0,94,0.00,,,0.00,Wunderground v.1.15,2013-05-03 06:51:00,
2013-05-03 02:53:00,68.3,66.5,29.77,SE,124,1.0,2.0,94,0.00,,,0.00,Wunderground v.1.15,2013-05-03 06:53:00,
2013-05-03 02:55:00,68.3,66.5,29.77,ESE,103,2.0,2.0,94,0.00,,,0.00,Wunderground v.1.15,2013-05-03 06:55:00,
2013-05-03 02:56:00,68.2,66.4,29.77,ESE,109,1.0,2.0,94,0.00,,,0.00,Wunderground v.1.15,2013-05-03 06:56:00,
2013-05-03 02:57:00,68.2,66.4,29.77,ESE,109,0.0,2.0,94,0.00,,,0.00,Wunderground v.1.15,2013-05-03 06:57:00,
2013-05-03 02:58:00,68.2,66.4,29.77,ESE,105,2.0,4.0,94,0.00,,,0.00,Wunderground v.1.15,2013-05-03 06:58:00,
2013-05-03 03:00:00,68.2,66.4,29.77,ESE,117,3.0,3.0,94,0.00,,,0.00,Wunderground v.1.15,2013-05-03 07:00:00,
2013-05-03 03:01:00,68.2,66.4,29.77,ESE,109,1.0,3.0,94,0.00,,,0.00,Wunderground v.1.15,2013-05-03 07:01:00,
2013-05-03 03:02:00,68.2,66.4,29.77,ESE,106,0.0,3.0,94,0.00,,,0.00,Wunderground v.1.15,2013-05-03 07:02:00,
2013-05-03 03:03:00,68.1,66.3,29.77,ESE,110,2.0,3.0,94,0.00,,,0.00,Wunderground v.1.15,2013-05-03 07:03:00,
2013-05-03 03:05:00,68.1,66.3,29.77,ESE,104,1.0,3.0,94,0.00,,,0.00,Wunderground v.1.15,2013-05-03 07:05:00,
2013-05-03 03:07:00,68.1,66.3,29.77,ESE,111,1.0,3.0,94,0.00,,,0.00,Wunderground v.1.15,2013-05-03 07:07:00,
2013-05-03 03:08:00,68.0,66.2,29.76,ESE,115,1.0,3.0,94,0.00,,,0.00,Wunderground v.1.15,2013-05-03 07:08:00,
2013-05-03 03:09:00,68.0,66.2,29.76,ESE,115,1.0,3.0,94,0.00,,,0.00,Wunderground v.1.15,2013-05-03 07:09:00,
2013-05-03 03:10:00,68.0,66.2,29.76,ESE,122,1.0,2.0,94,0.00,,,0.00,Wunderground v.1.15,2013-05-03 07:10:00,
2013-05-03 03:12:00,68.0,66.2,29.76,ESE,111,1.0,2.0,94,0.00,,,0.00,Wunderground v.1.15,2013-05-03 07:12:00,
2013-05-03 03:14:00,68.0,66.2,29.76,ESE,105,2.0,3.0,94,0.00,,,0.00,Wunderground v.1.15,2013-05-03 07:14:00,
2013-05-03 03:15:00,67.9,66.1,29.76,SE,131,1.0,3.0,94,0.00,,,0.00,Wunderground v.1.15,2013-05-03 07:15:00,
2013-05-03 03:17:00,67.9,66.4,29.76,ESE,113,1.0,3.0,95,0.00,,,0.00,Wunderground v.1.15,2013-05-03 07:17:00,
2013-05-03 03:19:00,67.9,66.4,29.76,ESE,111,2.0,3.0,95,0.00,,,0.00,Wunderground v.1.15,2013-05-03 07:19:00,
2013-05-03 03:21:00,67.9,66.4,29.76,ESE,104,2.0,2.0,95,0.00,,,0.00,Wunderground v.1.15,2013-05-03 07:21:00,
2013-05-03 03:22:00,67.8,66.3,29.76,ESE,104,2.0,3.0,95,0.00,,,0.00,Wunderground v.1.15,2013-05-03 07:22:00,
2013-05-03 03:24:00,67.8,66.3,29.76,ESE,111,3.0,3.0,95,0.00,,,0.00,Wunderground v.1.15,2013-05-03 07:24:00,
2013-05-03 03:26:00,67.8,66.3,29.76,ESE,105,5.0,5.0,95,0.00,,,0.00,Wunderground v.1.15,2013-05-03 07:26:00,
2013-05-03 03:27:00,67.8,66.3,29.76,ESE,110,2.0,5.0,95,0.00,,,0.00,Wunderground v.1.15,2013-05-03 07:27:00,
2013-05-03 03:29:00,67.7,66.2,29.76,ENE,75,1.0,5.0,95,0.00,,,0.00,Wunderground v.1.15,2013-05-03 07:29:00,
2013-05-03 03:31:00,67.7,66.2,29.76,ESE,111,1.0,3.0,95,0.00,,,0.00,Wunderground v.1.15,2013-05-03 07:31:00,
2013-05-03 03:32:00,67.7,66.2,29.76,ESE,110,2.0,3.0,95,0.00,,,0.00,Wunderground v.1.15,2013-05-03 07:32:00,
2013-05-03 03:33:00,67.7,66.2,29.76,ESE,109,2.0,3.0,95,0.00,,,0.00,Wunderground v.1.15,2013-05-03 07:33:00,
2013-05-03 03:34:00,67.7,66.2,29.76,SE,131,2.0,3.0,95,0.00,,,0.00,Wunderground v.1.15,2013-05-03 07:34:00,
2013-05-03 03:37:00,67.6,66.1,29.76,SE,139,2.0,3.0,95,0.00,,,0.00,Wunderground v.1.15,2013-05-03 07:37:00,
2013-05-03 03:38:00,67.6,66.1,29.76,SSE,149,1.0,3.0,95,0.00,,,0.00,Wunderground v.1.15,2013-05-03 07:38:00,
2013-05-03 03:39:00,67.6,66.1,29.76,ESE,103,1.0,3.0,95,0.00,,,0.00,Wunderground v.1.15,2013-05-03 07:39:00,
2013-05-03 03:40:00,67.6,66.1,29.76,ESE,115,1.0,1.0,95,0.00,,,0.00,Wunderground v.1.15,2013-05-03 07:40:00,
2013-05-03 03:42:00,67.5,66.0,29.76,ESE,115,0.0,3.0,95,0.00,,,0.00,Wunderground v.1.15,2013-05-03 07:42:00,
2013-05-03 03:43:00,67.5,66.0,29.76,SE,127,0.0,3.0,95,0.00,,,0.00,Wunderground v.1.15,2013-05-03 07:43:00,
2013-05-03 03:44:00,67.5,66.0,29.76,SE,124,0.0,3.0,95,0.00,,,0.00,Wunderground v.1.15,2013-05-03 07:44:00,
2013-05-03 03:45:00,67.5,66.0,29.76,ESE,121,1.0,3.0,95,0.00,,,0.00,Wunderground v.1.15,2013-05-03 07:45:00,
2013-05-03 03:47:00,67.5,66.0,29.76,SSE,148,3.0,4.0,95,0.00,,,0.00,Wunderground v.1.15,2013-05-03 07:47:00,
2013-05-03 03:48:00,67.5,66.0,29.76,SE,128,3.0,4.0,95,0.00,,,0.00,Wunderground v.1.15,2013-05-03 07:48:00,
2013-05-03 03:49:00,67.5,66.0,29.76,SE,130,1.0,1.0,95,0.00,,,0.00,Wunderground v.1.15,2013-05-03 07:49:00,
2013-05-03 03:50:00,67.4,65.9,29.76,ESE,115,2.0,3.0,95,0.00,,,0.00,Wunderground v.1.15,2013-05-03 07:50:00,
2013-05-03 03:52:00,67.4,65.9,29.76,SE,129,1.0,3.0,95,0.00,,,0.00,Wunderground v.1.15,2013-05-03 07:52:00,
2013-05-03 03:54:00,67.4,65.9,29.76,SE,129,1.0,3.0,95,0.00,,,0.00,Wunderground v.1.15,2013-05-03 07:54:00,
2013-05-03 03:55:00,67.3,65.8,29.75,SE,142,1.0,3.0,95,0.00,,,0.00,Wunderground v.1.15,2013-05-03 07:55:00,
2013-05-03 03:57:00,67.4,65.9,29.75,SE,132,1.0,4.0,95,0.00,,,0.00,Wunderground v.1.15,2013-05-03 07:57:00,
2013-05-03 03:59:00,67.3,65.8,29.75,SE,135,1.0,4.0,95,0.00,,,0.00,Wunderground v.1.15,2013-05-03 07:59:00,
2013-05-03 04:00:00,67.3,65.8,29.75,ESE,117,0.0,2.0,95,0.00,,,0.00,Wunderground v.1.15,2013-05-03 08:00:00,
2013-05-03 04:01:00,67.3,65.8,29.75,ESE,119,2.0,3.0,95,0.00,,,0.00,Wunderground v.1.15,2013-05-03 08:01:00,
2013-05-03 04:02:00,67.3,65.8,29.75,ESE,120,1.0,3.0,95,0.00,,,0.00,Wunderground v.1.15,2013-05-03 08:02:00,
2013-05-03 04:04:00,67.3,65.8,29.75,SE,132,1.0,3.0,95,0.00,,,0.00,Wunderground v.1.15,2013-05-03 08:04:00,
2013-05-03 04:05:00,67.3,65.8,29.75,SE,132,1.0,3.0,95,0.00,,,0.00,Wunderground v.1.15,2013-05-03 08:05:00,
2013-05-03 04:06:00,67.3,65.8,29.75,SE,142,1.0,3.0,95,0.00,,,0.00,Wunderground v.1.15,2013-05-03 08:06:00,
2013-05-03 04:08:00,67.3,65.8,29.75,SSE,153,1.0,3.0,95,0.00,,,0.00,Wunderground v.1.15,2013-05-03 08:08:00,
2013-05-03 04:10:00,67.3,65.8,29.76,SE,129,2.0,2.0,95,0.00,,,0.00,Wunderground v.1.15,2013-05-03 08:10:00,
2013-05-03 04:11:00,67.3,65.8,29.75,SE,135,1.0,2.0,95,0.00,,,0.00,Wunderground v.1.15,2013-05-03 08:11:00,
2013-05-03 04:13:00,67.3,65.8,29.75,East,93,1.0,2.0,95,0.00,,,0.00,Wunderground v.1.15,2013-05-03 08:13:00,
2013-05-03 04:15:00,67.3,65.8,29.75,ESE,105,1.0,3.0,95,0.00,,,0.00,Wunderground v.1.15,2013-05-03 08:15:00,
2013-05-03 04:16:00,67.3,65.8,29.75,ESE,117,0.0,3.0,95,0.00,,,0.00,Wunderground v.1.15,2013-05-03 08:16:00,
2013-05-03 04:17:00,67.3,65.8,29.75,East,96,2.0,3.0,95,0.00,,,0.00,Wunderground v.1.15,2013-05-03 08:17:00,
2013-05-03 04:18:00,67.3,65.8,29.75,East,101,2.0,3.0,95,0.00,,,0.00,Wunderground v.1.15,2013-05-03 08:18:00,
2013-05-03 04:20:00,67.3,65.8,29.75,East,96,1.0,2.0,95,0.00,,,0.00,Wunderground v.1.15,2013-05-03 08:20:00,
2013-05-03 04:21:00,67.3,65.8,29.75,East,93,2.0,2.0,95,0.00,,,0.00,Wunderground v.1.15,2013-05-03 08:21:00,
2013-05-03 04:22:00,67.2,65.7,29.75,ESE,109,1.0,2.0,95,0.00,,,0.00,Wunderground v.1.15,2013-05-03 08:22:00,
2013-05-03 04:24:00,67.2,65.7,29.75,ESE,109,1.0,2.0,95,0.00,,,0.00,Wunderground v.1.15,2013-05-03 08:24:00,
2013-05-03 04:25:00,67.2,65.7,29.75,East,91,2.0,2.0,95,0.00,,,0.00,Wunderground v.1.15,2013-05-03 08:25:00,
2013-05-03 04:26:00,67.2,65.7,29.75,ESE,115,2.0,2.0,95,0.00,,,0.00,Wunderground v.1.15,2013-05-03 08:26:00,
2013-05-03 04:27:00,67.2,65.7,29.75,ESE,105,1.0,3.0,95,0.00,,,0.00,Wunderground v.1.15,2013-05-03 08:27:00,
2013-05-03 04:29:00,67.1,65.6,29.75,East,91,2.0,3.0,95,0.00,,,0.00,Wunderground v.1.15,2013-05-03 08:29:00,
2013-05-03 04:30:00,67.1,65.6,29.75,ESE,107,2.0,2.0,95,0.00,,,0.00,Wunderground v.1.15,2013-05-03 08:30:00,
2013-05-03 04:31:00,67.1,65.6,29.75,ESE,118,1.0,2.0,95,0.00,,,0.00,Wunderground v.1.15,2013-05-03 08:31:00,
2013-05-03 04:32:00,67.2,65.7,29.75,ESE,111,2.0,2.0,95,0.00,,,0.00,Wunderground v.1.15,2013-05-03 08:32:00,
2013-05-03 04:35:00,67.1,65.6,29.75,SE,127,1.0,3.0,95,0.00,,,0.00,Wunderground v.1.15,2013-05-03 08:35:00,
2013-05-03 04:36:00,67.1,65.6,29.75,SE,128,1.0,3.0,95,0.00,,,0.00,Wunderground v.1.15,2013-05-03 08:36:00,
2013-05-03 04:37:00,67.1,65.6,29.75,SE,128,1.0,3.0,95,0.00,,,0.00,Wunderground v.1.15,2013-05-03 08:37:00,
2013-05-03 04:38:00,67.1,65.6,29.75,SE,128,0.0,3.0,95,0.00,,,0.00,Wunderground v.1.15,2013-05-03 08:38:00,
2013-05-03 04:40:00,67.1,65.6,29.75,SE,129,1.0,1.0,95,0.00,,,0.00,Wunderground v.1.15,2013-05-03 08:40:00,
2013-05-03 04:41:00,67.1,65.6,29.75,SE,129,1.0,1.0,95,0.00,,,0.00,Wunderground v.1.15,2013-05-03 08:41:00,
2013-05-03 04:42:00,67.1,65.6,29.75,SE,128,0.0,1.0,95,0.00,,,0.00,Wunderground v.1.15,2013-05-03 08:42:00,
2013-05-03 04:43:00,67.1,65.6,29.75,SE,129,1.0,1.0,95,0.00,,,0.00,Wunderground v.1.15,2013-05-03 08:43:00,
2013-05-03 04:46:00,67.1,65.6,29.75,SE,138,1.0,1.0,95,0.00,,,0.00,Wunderground v.1.15,2013-05-03 08:46:00,
2013-05-03 04:47:00,67.0,65.5,29.75,SE,136,0.0,1.0,95,0.00,,,0.00,Wunderground v.1.15,2013-05-03 08:47:00,
2013-05-03 04:48:00,67.0,65.5,29.75,SE,136,0.0,1.0,95,0.00,,,0.00,Wunderground v.1.15,2013-05-03 08:48:00,
2013-05-03 04:51:00,67.0,65.5,29.75,SE,128,0.0,1.0,95,0.00,,,0.00,Wunderground v.1.15,2013-05-03 08:51:00,
2013-05-03 04:52:00,67.0,65.5,29.75,ESE,118,1.0,2.0,95,0.00,,,0.00,Wunderground v.1.15,2013-05-03 08:52:00,
2013-05-03 04:53:00,66.9,65.4,29.75,ESE,109,1.0,2.0,95,0.00,,,0.00,Wunderground v.1.15,2013-05-03 08:53:00,
2013-05-03 04:56:00,66.9,65.4,29.75,SE,124,1.0,2.0,95,0.00,,,0.00,Wunderground v.1.15,2013-05-03 08:56:00,
2013-05-03 04:57:00,66.9,65.4,29.75,East,98,2.0,2.0,95,0.00,,,0.00,Wunderground v.1.15,2013-05-03 08:57:00,
2013-05-03 04:59:00,66.9,65.4,29.75,ESE,104,1.0,2.0,95,0.00,,,0.00,Wunderground v.1.15,2013-05-03 08:59:00,
2013-05-03 05:01:00,66.9,65.4,29.75,ESE,110,2.0,2.0,95,0.00,,,0.00,Wunderground v.1.15,2013-05-03 09:01:00,
2013-05-03 05:02:00,66.9,65.4,29.75,ESE,108,1.0,2.0,95,0.00,,,0.00,Wunderground v.1.15,2013-05-03 09:02:00,
2013-05-03 05:04:00,66.9,65.4,29.75,ESE,110,1.0,2.0,95,0.00,,,0.00,Wunderground v.1.15,2013-05-03 09:04:00,
2013-05-03 05:07:00,66.9,65.4,29.75,ESE,110,0.0,2.0,95,0.00,,,0.00,Wunderground v.1.15,2013-05-03 09:07:00,
2013-05-03 05:09:00,66.9,65.4,29.75,ESE,110,1.0,2.0,95,0.00,,,0.00,Wunderground v.1.15,2013-05-03 09:09:00,
2013-05-03 05:12:00,66.9,65.4,29.75,ESE,110,1.0,1.0,95,0.00,,,0.00,Wunderground v.1.15,2013-05-03 09:12:00,
2013-05-03 05:14:00,66.8,65.3,29.75,ESE,110,0.0,1.0,95,0.00,,,0.00,Wunderground v.1.15,2013-05-03 09:14:00,
2013-05-03 05:17:00,66.8,65.3,29.75,ESE,111,0.0,1.0,95,0.00,,,0.00,Wunderground v.1.15,2013-05-03 09:17:00,
2013-05-03 05:19:00,66.8,65.3,29.75,ESE,112,1.0,1.0,95,0.00,,,0.00,Wunderground v.1.15,2013-05-03 09:19:00,
2013-05-03 05:22:00,66.8,65.3,29.75,ESE,111,1.0,1.0,95,0.00,,,0.00,Wunderground v.1.15,2013-05-03 09:22:00,
2013-05-03 05:23:00,66.8,65.3,29.75,ESE,109,1.0,1.0,95,0.00,,,0.00,Wunderground v.1.15,2013-05-03 09:23:00,
2013-05-03 05:25:00,66.8,65.3,29.75,ESE,108,1.0,2.0,95,0.00,,,0.00,Wunderground v.1.15,2013-05-03 09:25:00,
2013-05-03 05:26:00,66.8,65.3,29.75,ESE,107,1.0,2.0,95,0.00,,,0.00,Wunderground v.1.15,2013-05-03 09:26:00,
2013-05-03 05:27:00,66.8,65.3,29.75,East,101,1.0,2.0,95,0.00,,,0.00,Wunderground v.1.15,2013-05-03 09:27:00,
2013-05-03 05:28:00,66.8,65.3,29.75,East,101,1.0,2.0,95,0.00,,,0.00,Wunderground v.1.15,2013-05-03 09:28:00,
2013-05-03 05:30:00,66.8,65.3,29.76,ESE,102,1.0,1.0,95,0.00,,,0.00,Wunderground v.1.15,2013-05-03 09:30:00,
2013-05-03 05:31:00,66.8,65.3,29.76,East,101,0.0,1.0,95,0.00,,,0.00,Wunderground v.1.15,2013-05-03 09:31:00,
2013-05-03 05:33:00,66.8,65.3,29.76,ESE,102,1.0,1.0,95,0.00,,,0.00,Wunderground v.1.15,2013-05-03 09:33:00,
2013-05-03 05:35:00,66.8,65.3,29.76,ESE,102,1.0,2.0,95,0.00,,,0.00,Wunderground v.1.15,2013-05-03 09:35:00,
2013-05-03 05:36:00,66.8,65.3,29.76,East,89,2.0,2.0,95,0.00,,,0.00,Wunderground v.1.15,2013-05-03 09:36:00,
2013-05-03 05:38:00,66.8,65.3,29.76,East,84,2.0,2.0,95,0.00,,,0.00,Wunderground v.1.15,2013-05-03 09:38:00,
2013-05-03 05:41:00,66.8,65.3,29.76,ENE,75,2.0,2.0,95,0.00,,,0.00,Wunderground v.1.15,2013-05-03 09:41:00,
2013-05-03 05:42:00,66.8,65.3,29.76,East,86,1.0,2.0,95,0.00,,,0.00,Wunderground v.1.15,2013-05-03 09:42:00,
2013-05-03 05:43:00,66.8,65.3,29.76,East,86,2.0,2.0,95,0.00,,,0.00,Wunderground v.1.15,2013-05-03 09:43:00,
2013-05-03 05:44:00,66.7,65.2,29.76,East,86,1.0,2.0,95,0.00,,,0.00,Wunderground v.1.15,2013-05-03 09:44:00,
2013-05-03 05:46:00,66.7,65.2,29.76,East,84,2.0,2.0,95,0.00,,,0.00,Wunderground v.1.15,2013-05-03 09:46:00,
2013-05-03 05:47:00,66.7,65.2,29.76,East,84,2.0,2.0,95,0.00,,,0.00,Wunderground v.1.15,2013-05-03 09:47:00,
2013-05-03 05:48:00,66.7,65.2,29.76,ENE,74,2.0,2.0,95,0.00,,,0.00,Wunderground v.1.15,2013-05-03 09:48:00,
2013-05-03 05:49:00,66.7,65.2,29.76,ENE,75,2.0,2.0,95,0.00,,,0.00,Wunderground v.1.15,2013-05-03 09:49:00,
2013-05-03 05:51:00,66.6,65.1,29.76,East,79,2.0,2.0,95,0.00,,,0.00,Wunderground v.1.15,2013-05-03 09:51:00,
2013-05-03 05:52:00,66.6,65.1,29.76,ENE,76,2.0,3.0,95,0.00,,,0.00,Wunderground v.1.15,2013-05-03 09:52:00,
2013-05-03 05:53:00,66.6,65.1,29.76,ENE,75,2.0,3.0,95,0.00,,,0.00,Wunderground v.1.15,2013-05-03 09:53:00,
2013-05-03 05:54:00,66.6,65.1,29.76,ENE,72,1.0,3.0,95,0.00,,,0.00,Wunderground v.1.15,2013-05-03 09:54:00,
2013-05-03 05:56:00,66.6,65.4,29.76,ENE,72,2.0,3.0,96,0.00,,,0.00,Wunderground v.1.15,2013-05-03 09:56:00,
2013-05-03 05:57:00,66.6,65.4,29.76,ENE,72,1.0,3.0,96,0.00,,,0.00,Wunderground v.1.15,2013-05-03 09:57:00,
2013-05-03 05:58:00,66.6,65.4,29.77,East,96,0.0,3.0,96,0.00,,,0.00,Wunderground v.1.15,2013-05-03 09:58:00,
2013-05-03 05:59:00,66.6,65.4,29.77,East,96,1.0,3.0,96,0.00,,,0.00,Wunderground v.1.15,2013-05-03 09:59:00,
2013-05-03 06:01:00,66.6,65.4,29.76,East,94,1.0,2.0,96,0.00,,,0.00,Wunderground v.1.15,2013-05-03 10:01:00,
2013-05-03 06:02:00,66.6,65.4,29.77,East,94,1.0,2.0,96,0.00,,,0.00,Wunderground v.1.15,2013-05-03 10:02:00,
2013-05-03 06:03:00,66.6,65.4,29.77,East,87,2.0,2.0,96,0.00,,,0.00,Wunderground v.1.15,2013-05-03 10:03:00,
2013-05-03 06:04:00,66.6,65.4,29.77,East,89,2.0,2.0,96,0.00,,,0.00,Wunderground v.1.15,2013-05-03 10:04:00,
2013-05-03 06:06:00,66.6,65.4,29.77,ESE,109,1.0,2.0,96,0.00,,,0.00,Wunderground v.1.15,2013-05-03 10:06:00,
2013-05-03 06:07:00,66.5,65.3,29.77,ESE,113,1.0,2.0,96,0.00,,,0.00,Wunderground v.1.15,2013-05-03 10:07:00,
2013-05-03 06:08:00,66.5,65.3,29.76,East,94,0.0,2.0,96,0.00,,,0.00,Wunderground v.1.15,2013-05-03 10:08:00,
2013-05-03 06:09:00,66.6,65.4,29.76,East,94,0.0,2.0,96,0.00,,,0.00,Wunderground v.1.15,2013-05-03 10:09:00,
2013-05-03 06:12:00,66.5,65.3,29.77,East,96,1.0,1.0,96,0.00,,,0.00,Wunderground v.1.15,2013-05-03 10:12:00,
2013-05-03 06:14:00,66.5,65.3,29.77,East,95,1.0,2.0,96,0.00,,,0.00,Wunderground v.1.15,2013-05-03 10:14:00,
2013-05-03 06:15:00,66.5,65.3,29.77,East,94,1.0,2.0,96,0.00,,,0.00,Wunderground v.1.15,2013-05-03 10:15:00,
2013-05-03 06:17:00,66.4,65.2,29.77,East,91,1.0,2.0,96,0.00,,,0.00,Wunderground v.1.15,2013-05-03 10:17:00,
2013-05-03 06:19:00,66.4,65.2,29.77,East,91,1.0,2.0,96,0.00,,,0.00,Wunderground v.1.15,2013-05-03 10:19:00,
2013-05-03 06:20:00,66.4,65.2,29.77,East,91,1.0,1.0,96,0.00,,,0.00,Wunderground v.1.15,2013-05-03 10:20:00,
2013-05-03 06:22:00,66.4,65.2,29.77,East,92,1.0,2.0,96,0.00,,,0.00,Wunderground v.1.15,2013-05-03 10:22:00,
2013-05-03 06:24:00,66.4,65.2,29.77,East,95,0.0,2.0,96,0.00,,,0.00,Wunderground v.1.15,2013-05-03 10:24:00,
2013-05-03 06:25:00,66.4,65.2,29.77,ESE,112,0.0,2.0,96,0.00,,,0.00,Wunderground v.1.15,2013-05-03 10:25:00,
2013-05-03 06:28:00,66.4,65.2,29.77,ESE,111,0.0,2.0,96,0.00,,,0.00,Wunderground v.1.15,2013-05-03 10:28:00,
2013-05-03 06:29:00,66.4,65.2,29.77,East,93,2.0,2.0,96,0.00,,,0.00,Wunderground v.1.15,2013-05-03 10:29:00,
2013-05-03 06:30:00,66.4,65.2,29.77,East,87,1.0,2.0,96,0.00,,,0.00,Wunderground v.1.15,2013-05-03 10:30:00,
2013-05-03 06:33:00,66.3,65.1,29.77,East,82,1.0,2.0,96,0.00,,,0.00,Wunderground v.1.15,2013-05-03 10:33:00,
2013-05-03 06:34:00,66.3,65.1,29.77,East,82,1.0,2.0,96,0.00,,,0.00,Wunderground v.1.15,2013-05-03 10:34:00,
2013-05-03 06:35:00,66.3,65.1,29.77,East,82,1.0,2.0,96,0.00,,,0.00,Wunderground v.1.15,2013-05-03 10:35:00,
2013-05-03 06:38:00,66.2,65.0,29.77,East,82,2.0,2.0,96,0.00,,,0.00,Wunderground v.1.15,2013-05-03 10:38:00,
2013-05-03 06:39:00,66.3,65.1,29.77,East,82,1.0,1.0,96,0.00,,,0.00,Wunderground v.1.15,2013-05-03 10:39:00,
2013-05-03 06:40:00,66.3,65.1,29.77,East,82,1.0,1.0,96,0.00,,,0.00,Wunderground v.1.15,2013-05-03 10:40:00,
2013-05-03 06:43:00,66.3,65.1,29.77,East,82,1.0,2.0,96,0.00,,,0.00,Wunderground v.1.15,2013-05-03 10:43:00,
2013-05-03 06:45:00,66.2,65.0,29.77,East,86,1.0,2.0,96,0.00,,,0.00,Wunderground v.1.15,2013-05-03 10:45:00,
2013-05-03 06:46:00,66.2,65.0,29.77,East,85,2.0,2.0,96,0.00,,,0.00,Wunderground v.1.15,2013-05-03 10:46:00,
2013-05-03 06:48:00,66.2,65.0,29.77,East,93,2.0,3.0,96,0.00,,,0.00,Wunderground v.1.15,2013-05-03 10:48:00,
2013-05-03 06:49:00,66.2,65.0,29.77,East,88,2.0,3.0,96,0.00,,,0.00,Wunderground v.1.15,2013-05-03 10:49:00,
2013-05-03 06:50:00,66.2,65.0,29.77,East,84,2.0,2.0,96,0.00,,,0.00,Wunderground v.1.15,2013-05-03 10:50:00,
2013-05-03 06:51:00,66.2,65.0,29.77,East,87,2.0,3.0,96,0.00,,,0.00,Wunderground v.1.15,2013-05-03 10:51:00,
2013-05-03 06:54:00,66.2,65.0,29.77,East,89,1.0,3.0,96,0.00,,,0.00,Wunderground v.1.15,2013-05-03 10:54:00,
2013-05-03 06:55:00,66.2,65.0,29.77,East,92,2.0,3.0,96,0.00,,,0.00,Wunderground v.1.15,2013-05-03 10:55:00,
2013-05-03 06:56:00,66.2,65.0,29.77,East,91,2.0,3.0,96,0.00,,,0.00,Wunderground v.1.15,2013-05-03 10:56:00,
2013-05-03 06:59:00,66.2,65.0,29.77,ENE,72,2.0,3.0,96,0.00,,,0.00,Wunderground v.1.15,2013-05-03 10:59:00,
2013-05-03 07:00:00,66.2,65.0,29.77,NE,51,3.0,3.0,96,0.00,,,0.00,Wunderground v.1.15,2013-05-03 11:00:00,
2013-05-03 07:01:00,66.3,65.1,29.77,NE,47,1.0,3.0,96,0.00,,,0.00,Wunderground v.1.15,2013-05-03 11:01:00,
2013-05-03 07:04:00,66.3,65.1,29.77,NE,46,1.0,3.0,96,0.00,,,0.00,Wunderground v.1.15,2013-05-03 11:04:00,
2013-05-03 07:05:00,66.3,65.1,29.77,NE,44,3.0,3.0,96,0.00,,,0.00,Wunderground v.1.15,2013-05-03 11:05:00,
2013-05-03 07:06:00,66.3,65.1,29.77,North,355,1.0,3.0,96,0.00,,,0.00,Wunderground v.1.15,2013-05-03 11:06:00,
2013-05-03 07:09:00,66.3,65.1,29.77,NE,56,2.0,3.0,96,0.00,,,0.00,Wunderground v.1.15,2013-05-03 11:09:00,
2013-05-03 07:10:00,66.3,65.1,29.77,ENE,68,2.0,2.0,96,0.00,,,0.00,Wunderground v.1.15,2013-05-03 11:10:00,
2013-05-03 07:11:00,66.3,65.1,29.77,ENE,61,2.0,2.0,96,0.00,,,0.00,Wunderground v.1.15,2013-05-03 11:11:00,
2013-05-03 07:12:00,66.3,65.1,29.77,ENE,61,2.0,2.0,96,0.00,,,0.00,Wunderground v.1.15,2013-05-03 11:12:00,
2013-05-03 07:14:00,66.3,65.1,29.77,East,91,0.0,2.0,96,0.00,,,0.00,Wunderground v.1.15,2013-05-03 11:14:00,
2013-05-03 07:16:00,66.4,65.2,29.77,East,89,0.0,2.0,96,0.00,,,0.00,Wunderground v.1.15,2013-05-03 11:16:00,
2013-05-03 07:17:00,66.4,65.2,29.77,East,89,1.0,2.0,96,0.00,,,0.00,Wunderground v.1.15,2013-05-03 11:17:00,
2013-05-03 07:19:00,66.5,65.3,29.77,East,89,1.0,1.0,96,0.00,,,0.00,Wunderground v.1.15,2013-05-03 11:19:00,
2013-05-03 07:21:00,66.6,65.4,29.77,East,89,2.0,2.0,96,0.00,,,0.00,Wunderground v.1.15,2013-05-03 11:21:00,
2013-05-03 07:22:00,66.6,65.4,29.78,ENE,76,2.0,3.0,96,0.00,,,0.00,Wunderground v.1.15,2013-05-03 11:22:00,
2013-05-03 07:25:00,66.7,65.5,29.78,East,101,1.0,3.0,96,0.00,,,0.00,Wunderground v.1.15,2013-05-03 11:25:00,
2013-05-03 07:26:00,66.7,65.5,29.78,East,80,2.0,3.0,96,0.00,,,0.00,Wunderground v.1.15,2013-05-03 11:26:00,
2013-05-03 07:27:00,66.7,65.5,29.78,East,84,2.0,3.0,96,0.00,,,0.00,Wunderground v.1.15,2013-05-03 11:27:00,
2013-05-03 07:31:00,66.9,65.7,29.78,ENE,67,2.0,2.0,96,0.00,,,0.00,Wunderground v.1.15,2013-05-03 11:31:00,
2013-05-03 07:32:00,67.0,65.8,29.78,ENE,71,2.0,3.0,96,0.00,,,0.00,Wunderground v.1.15,2013-05-03 11:32:00,
2013-05-03 07:36:00,67.1,65.9,29.78,ENE,72,4.0,4.0,96,0.00,,,0.00,Wunderground v.1.15,2013-05-03 11:36:00,
2013-05-03 07:37:00,67.2,66.0,29.78,ENE,72,3.0,4.0,96,0.00,,,0.00,Wunderground v.1.15,2013-05-03 11:37:00,
2013-05-03 07:41:00,67.5,66.3,29.78,ENE,71,3.0,4.0,96,0.00,,,0.00,Wunderground v.1.15,2013-05-03 11:41:00,
2013-05-03 07:42:00,67.5,66.3,29.78,East,80,3.0,4.0,96,0.00,,,0.00,Wunderground v.1.15,2013-05-03 11:42:00,
2013-05-03 07:43:00,67.5,66.3,29.78,ENE,75,2.0,4.0,96,0.00,,,0.00,Wunderground v.1.15,2013-05-03 11:43:00,
2013-05-03 07:46:00,67.7,66.5,29.77,ENE,72,2.0,4.0,96,0.00,,,0.00,Wunderground v.1.15,2013-05-03 11:46:00,
2013-05-03 07:47:00,67.7,66.5,29.78,ENE,72,2.0,4.0,96,0.00,,,0.00,Wunderground v.1.15,2013-05-03 11:47:00,
2013-05-03 07:48:00,67.8,66.6,29.78,ENE,62,1.0,4.0,96,0.00,,,0.00,Wunderground v.1.15,2013-05-03 11:48:00,
2013-05-03 07:51:00,68.0,66.8,29.78,East,84,2.0,2.0,96,0.00,,,0.00,Wunderground v.1.15,2013-05-03 11:51:00,
2013-05-03 07:52:00,68.1,66.9,29.78,East,84,1.0,2.0,96,0.00,,,0.00,Wunderground v.1.15,2013-05-03 11:52:00,
2013-05-03 07:53:00,68.2,67.0,29.78,East,84,1.0,2.0,96,0.00,,,0.00,Wunderground v.1.15,2013-05-03 11:53:00,
2013-05-03 07:56:00,68.4,67.2,29.78,ENE,72,2.0,2.0,96,0.00,,,0.00,Wunderground v.1.15,2013-05-03 11:56:00,
2013-05-03 07:57:00,68.5,67.0,29.77,ENE,78,1.0,2.0,95,0.00,,,0.00,Wunderground v.1.15,2013-05-03 11:57:00,
2013-05-03 07:59:00,68.6,67.1,29.78,ENE,72,1.0,3.0,95,0.00,,,0.00,Wunderground v.1.15,2013-05-03 11:59:00,
2013-05-03 08:01:00,68.8,67.3,29.77,ENE,70,2.0,3.0,95,0.00,,,0.00,Wunderground v.1.15,2013-05-03 12:01:00,
2013-05-03 08:02:00,68.9,67.4,29.77,East,89,1.0,3.0,95,0.00,,,0.00,Wunderground v.1.15,2013-05-03 12:02:00,
2013-05-03 08:04:00,69.0,67.5,29.77,East,84,3.0,3.0,95,0.00,,,0.00,Wunderground v.1.15,2013-05-03 12:04:00,
2013-05-03 08:06:00,69.2,67.7,29.77,East,95,0.0,3.0,95,0.00,,,0.00,Wunderground v.1.15,2013-05-03 12:06:00,
2013-05-03 08:07:00,69.3,67.8,29.77,East,85,2.0,3.0,95,0.00,,,0.00,Wunderground v.1.15,2013-05-03 12:07:00,
2013-05-03 08:09:00,69.4,67.9,29.78,East,88,3.0,3.0,95,0.00,,,0.00,Wunderground v.1.15,2013-05-03 12:09:00,
2013-05-03 08:11:00,69.6,67.8,29.78,SE,138,3.0,4.0,94,0.00,,,0.00,Wunderground v.1.15,2013-05-03 12:11:00,
2013-05-03 08:12:00,69.6,67.8,29.78,East,86,3.0,4.0,94,0.00,,,0.00,Wunderground v.1.15,2013-05-03 12:12:00,
2013-05-03 08:13:00,69.7,67.9,29.78,ENE,72,2.0,4.0,94,0.00,,,0.00,Wunderground v.1.15,2013-05-03 12:13:00,
2013-05-03 08:14:00,69.8,68.0,29.78,East,84,2.0,5.0,94,0.00,,,0.00,Wunderground v.1.15,2013-05-03 12:14:00,
2013-05-03 08:16:00,69.9,68.1,29.78,East,88,2.0,5.0,94,0.00,,,0.00,Wunderground v.1.15,2013-05-03 12:16:00,
2013-05-03 08:18:00,70.0,67.9,29.78,ENE,72,5.0,5.0,93,0.00,,,0.00,Wunderground v.1.15,2013-05-03 12:18:00,
2013-05-03 08:20:00,70.0,67.9,29.78,ENE,60,4.0,4.0,93,0.00,,,0.00,Wunderground v.1.15,2013-05-03 12:20:00,
2013-05-03 08:22:00,70.0,67.9,29.78,ENE,72,5.0,5.0,93,0.00,,,0.00,Wunderground v.1.15,2013-05-03 12:22:00,
2013-05-03 08:23:00,70.0,67.9,29.78,ESE,111,3.0,5.0,93,0.00,,,0.00,Wunderground v.1.15,2013-05-03 12:23:00,
2013-05-03 08:25:00,70.2,68.1,29.78,ENE,72,5.0,5.0,93,0.00,,,0.00,Wunderground v.1.15,2013-05-03 12:25:00,
2013-05-03 08:27:00,70.3,68.2,29.78,ENE,69,5.0,6.0,93,0.00,,,0.00,Wunderground v.1.15,2013-05-03 12:27:00,
2013-05-03 08:28:00,70.3,68.2,29.78,East,79,3.0,6.0,93,0.00,,,0.00,Wunderground v.1.15,2013-05-03 12:28:00,
2013-05-03 08:29:00,70.3,68.2,29.78,ENE,72,2.0,6.0,93,0.00,,,0.00,Wunderground v.1.15,2013-05-03 12:29:00,
2013-05-03 08:30:00,70.4,68.3,29.78,ENE,67,3.0,4.0,93,0.00,,,0.00,Wunderground v.1.15,2013-05-03 12:30:00,
2013-05-03 08:32:00,70.4,68.0,29.78,ENE,68,6.0,6.0,92,0.00,,,0.00,Wunderground v.1.15,2013-05-03 12:32:00,
2013-05-03 08:33:00,70.5,68.1,29.78,ENE,71,3.0,6.0,92,0.00,,,0.00,Wunderground v.1.15,2013-05-03 12:33:00,
2013-05-03 08:35:00,70.5,68.1,29.78,ENE,60,4.0,6.0,92,0.00,,,0.00,Wunderground v.1.15,2013-05-03 12:35:00,
2013-05-03 08:36:00,70.5,68.1,29.78,East,84,5.0,6.0,92,0.00,,,0.00,Wunderground v.1.15,2013-05-03 12:36:00,
2013-05-03 08:37:00,70.6,68.2,29.78,ENE,72,4.0,6.0,92,0.00,,,0.00,Wunderground v.1.15,2013-05-03 12:37:00,
2013-05-03 08:38:00,70.8,68.4,29.78,East,91,2.0,6.0,92,0.00,,,0.00,Wunderground v.1.15,2013-05-03 12:38:00,
2013-05-03 08:39:00,70.8,68.4,29.78,SE,135,1.0,6.0,92,0.00,,,0.00,Wunderground v.1.15,2013-05-03 12:39:00,
2013-05-03 08:40:00,70.9,68.5,29.78,East,84,4.0,6.0,92,0.00,,,0.00,Wunderground v.1.15,2013-05-03 12:40:00,
2013-05-03 08:41:00,70.9,68.5,29.78,ESE,115,5.0,6.0,92,0.00,,,0.00,Wunderground v.1.15,2013-05-03 12:41:00,
2013-05-03 08:43:00,71.1,68.3,29.78,East,79,3.0,6.0,91,0.00,,,0.00,Wunderground v.1.15,2013-05-03 12:43:00,
2013-05-03 08:44:00,71.1,68.3,29.78,ESE,105,3.0,6.0,91,0.00,,,0.00,Wunderground v.1.15,2013-05-03 12:44:00,
2013-05-03 08:45:00,71.3,68.5,29.78,ESE,115,4.0,6.0,91,0.00,,,0.00,Wunderground v.1.15,2013-05-03 12:45:00,
2013-05-03 08:46:00,71.4,68.6,29.78,East,86,4.0,6.0,91,0.00,,,0.00,Wunderground v.1.15,2013-05-03 12:46:00,
2013-05-03 08:48:00,71.4,68.3,29.78,ENE,75,3.0,6.0,90,0.00,,,0.00,Wunderground v.1.15,2013-05-03 12:48:00,
2013-05-03 08:49:00,71.5,68.4,29.78,East,86,4.0,6.0,90,0.00,,,0.00,Wunderground v.1.15,2013-05-03 12:49:00,
2013-05-03 08:50:00,71.6,68.5,29.78,ENE,74,3.0,4.0,90,0.00,,,0.00,Wunderground v.1.15,2013-05-03 12:50:00,
2013-05-03 08:51:00,71.6,68.5,29.78,East,100,3.0,4.0,90,0.00,,,0.00,Wunderground v.1.15,2013-05-03 12:51:00,
2013-05-03 08:53:00,71.9,68.8,29.78,SSE,150,2.0,5.0,90,0.00,,,0.00,Wunderground v.1.15,2013-05-03 12:53:00,
2013-05-03 08:54:00,72.0,68.9,29.78,East,101,1.0,5.0,90,0.00,,,0.00,Wunderground v.1.15,2013-05-03 12:54:00,
2013-05-03 08:55:00,72.2,69.1,29.78,East,97,1.0,5.0,90,0.00,,,0.00,Wunderground v.1.15,2013-05-03 12:55:00,
2013-05-03 08:56:00,72.1,69.0,29.78,East,97,1.0,5.0,90,0.00,,,0.00,Wunderground v.1.15,2013-05-03 12:56:00,
2013-05-03 08:57:00,72.3,69.2,29.78,ESE,104,0.0,5.0,90,0.00,,,0.00,Wunderground v.1.15,2013-05-03 12:57:00,
2013-05-03 08:58:00,72.5,69.1,29.78,SE,129,2.0,5.0,89,0.00,,,0.00,Wunderground v.1.15,2013-05-03 12:58:00,
2013-05-03 08:59:00,72.6,69.2,29.78,East,97,2.0,5.0,89,0.00,,,0.00,Wunderground v.1.15,2013-05-03 12:59:00,
2013-05-03 09:01:00,72.7,69.3,29.78,SE,131,0.0,3.0,89,0.00,,,0.00,Wunderground v.1.15,2013-05-03 13:01:00,
2013-05-03 09:02:00,72.9,69.5,29.78,East,87,2.0,3.0,89,0.00,,,0.00,Wunderground v.1.15,2013-05-03 13:02:00,
2013-05-03 09:04:00,73.1,69.3,29.78,ESE,122,1.0,4.0,88,0.00,,,0.00,Wunderground v.1.15,2013-05-03 13:04:00,
2013-05-03 09:05:00,73.2,69.4,29.78,South,169,1.0,4.0,88,0.00,,,0.00,Wunderground v.1.15,2013-05-03 13:05:00,
2013-05-03 09:06:00,73.2,69.4,29.78,East,96,1.0,4.0,88,0.00,,,0.00,Wunderground v.1.15,2013-05-03 13:06:00,
2013-05-03 09:07:00,73.3,69.5,29.78,SE,127,2.0,4.0,88,0.00,,,0.00,Wunderground v.1.15,2013-05-03 13:07:00,
2013-05-03 09:09:00,73.4,69.3,29.78,ESE,110,2.0,4.0,87,0.00,,,0.00,Wunderground v.1.15,2013-05-03 13:09:00,
2013-05-03 09:10:00,73.5,69.4,29.78,East,96,2.0,4.0,87,0.00,,,0.00,Wunderground v.1.15,2013-05-03 13:10:00,
2013-05-03 09:11:00,73.5,69.4,29.78,SE,139,3.0,5.0,87,0.00,,,0.00,Wunderground v.1.15,2013-05-03 13:11:00,
2013-05-03 09:12:00,73.6,69.5,29.78,SE,134,2.0,5.0,87,0.00,,,0.00,Wunderground v.1.15,2013-05-03 13:12:00,
2013-05-03 09:14:00,73.7,69.6,29.78,SSE,150,0.0,5.0,87,0.00,,,0.00,Wunderground v.1.15,2013-05-03 13:14:00,
2013-05-03 09:15:00,73.8,69.7,29.78,ESE,108,2.0,5.0,87,0.00,,,0.00,Wunderground v.1.15,2013-05-03 13:15:00,
2013-05-03 09:16:00,73.9,69.8,29.78,ESE,109,0.0,5.0,87,0.00,,,0.00,Wunderground v.1.15,2013-05-03 13:16:00,
2013-05-03 09:17:00,74.1,70.0,29.78,ESE,108,0.0,5.0,87,0.00,,,0.00,Wunderground v.1.15,2013-05-03 13:17:00,
2013-05-03 09:19:00,74.6,70.5,29.78,ESE,106,0.0,1.0,87,0.00,,,0.00,Wunderground v.1.15,2013-05-03 13:19:00,
2013-05-03 09:20:00,74.7,70.2,29.78,East,86,1.0,1.0,86,0.00,,,0.00,Wunderground v.1.15,2013-05-03 13:20:00,
2013-05-03 09:21:00,74.9,70.1,29.78,ENE,78,4.0,4.0,85,0.00,,,0.00,Wunderground v.1.15,2013-05-03 13:21:00,
2013-05-03 09:22:00,74.9,70.1,29.78,ENE,67,3.0,4.0,85,0.00,,,0.00,Wunderground v.1.15,2013-05-03 13:22:00,
2013-05-03 09:24:00,74.8,70.0,29.78,East,86,1.0,4.0,85,0.00,,,0.00,Wunderground v.1.15,2013-05-03 13:24:00,
2013-05-03 09:25:00,74.7,69.9,29.78,SE,124,2.0,4.0,85,0.00,,,0.00,Wunderground v.1.15,2013-05-03 13:25:00,
2013-05-03 09:26:00,74.7,69.9,29.78,ENE,75,3.0,4.0,85,0.00,,,0.00,Wunderground v.1.15,2013-05-03 13:26:00,
2013-05-03 09:27:00,74.6,69.8,29.78,East,79,3.0,4.0,85,0.00,,,0.00,Wunderground v.1.15,2013-05-03 13:27:00,
2013-05-03 09:29:00,74.4,69.6,29.78,ENE,75,2.0,3.0,85,0.00,,,0.00,Wunderground v.1.15,2013-05-03 13:29:00,
2013-05-03 09:30:00,74.3,69.5,29.78,ENE,77,2.0,3.0,85,0.00,,,0.00,Wunderground v.1.15,2013-05-03 13:30:00,
2013-05-03 09:31:00,74.2,69.4,29.78,ENE,62,2.0,3.0,85,0.00,,,0.00,Wunderground v.1.15,2013-05-03 13:31:00,
2013-05-03 09:32:00,74.2,69.4,29.78,ENE,62,1.0,3.0,85,0.00,,,0.00,Wunderground v.1.15,2013-05-03 13:32:00,
2013-05-03 09:35:00,74.4,69.9,29.78,East,98,2.0,3.0,86,0.00,,,0.00,Wunderground v.1.15,2013-05-03 13:35:00,
2013-05-03 09:37:00,74.6,69.8,29.79,East,82,3.0,5.0,85,0.00,,,0.00,Wunderground v.1.15,2013-05-03 13:37:00,
2013-05-03 09:38:00,74.6,69.8,29.78,ENE,75,2.0,5.0,85,0.00,,,0.00,Wunderground v.1.15,2013-05-03 13:38:00,
2013-05-03 09:40:00,74.5,69.7,29.79,ESE,106,1.0,2.0,85,0.00,,,0.00,Wunderground v.1.15,2013-05-03 13:40:00,
2013-05-03 09:42:00,74.7,70.2,29.78,ESE,111,1.0,3.0,86,0.00,,,0.00,Wunderground v.1.15,2013-05-03 13:42:00,
2013-05-03 09:43:00,74.9,70.4,29.79,SE,134,1.0,3.0,86,0.00,,,0.00,Wunderground v.1.15,2013-05-03 13:43:00,
2013-05-03 09:45:00,75.3,70.5,29.78,ESE,105,3.0,3.0,85,0.00,,,0.00,Wunderground v.1.15,2013-05-03 13:45:00,
2013-05-03 09:46:00,75.4,70.2,29.79,SE,139,2.0,3.0,84,0.00,,,0.00,Wunderground v.1.15,2013-05-03 13:46:00,
2013-05-03 09:47:00,75.7,70.5,29.79,SSE,166,3.0,4.0,84,0.00,,,0.00,Wunderground v.1.15,2013-05-03 13:47:00,
2013-05-03 09:48:00,75.8,70.6,29.79,SSW,211,3.0,4.0,84,0.00,,,0.00,Wunderground v.1.15,2013-05-03 13:48:00,
2013-05-03 09:50:00,76.2,70.7,29.79,South,173,0.0,2.0,83,0.00,,,0.00,Wunderground v.1.15,2013-05-03 13:50:00,
2013-05-03 09:51:00,76.2,70.7,29.79,SSW,197,1.0,2.0,83,0.00,,,0.00,Wunderground v.1.15,2013-05-03 13:51:00,
2013-05-03 09:53:00,76.3,70.4,29.79,West,264,2.0,3.0,82,0.00,,,0.00,Wunderground v.1.15,2013-05-03 13:53:00,
2013-05-03 09:54:00,76.2,70.3,29.78,West,274,2.0,3.0,82,0.00,,,0.00,Wunderground v.1.15,2013-05-03 13:54:00,
2013-05-03 09:55:00,76.0,70.1,29.78,NNW,337,1.0,3.0,82,0.00,,,0.00,Wunderground v.1.15,2013-05-03 13:55:00,
2013-05-03 09:56:00,75.9,70.0,29.78,NNW,338,0.0,3.0,82,0.00,,,0.00,Wunderground v.1.15,2013-05-03 13:56:00,
2013-05-03 09:58:00,76.1,70.6,29.78,ESE,111,1.0,3.0,83,0.00,,,0.00,Wunderground v.1.15,2013-05-03 13:58:00,
2013-05-03 09:59:00,76.1,70.6,29.78,SSW,201,3.0,3.0,83,0.00,,,0.00,Wunderground v.1.15,2013-05-03 13:59:00,
2013-05-03 10:01:00,76.4,70.5,29.78,SW,219,3.0,4.0,82,0.00,,,0.00,Wunderground v.1.15,2013-05-03 14:01:00,
2013-05-03 10:03:00,76.8,70.5,29.78,NW,313,1.0,4.0,81,0.00,,,0.00,Wunderground v.1.15,2013-05-03 14:03:00,
2013-05-03 10:04:00,76.8,70.5,29.78,NW,313,1.0,4.0,81,0.00,,,0.00,Wunderground v.1.15,2013-05-03 14:04:00,
2013-05-03 10:06:00,76.9,70.6,29.78,NW,305,1.0,4.0,81,0.00,,,0.00,Wunderground v.1.15,2013-05-03 14:06:00,
2013-05-03 10:07:00,76.9,70.6,29.78,NW,315,0.0,4.0,81,0.00,,,0.00,Wunderground v.1.15,2013-05-03 14:07:00,
2013-05-03 10:09:00,76.9,70.6,29.78,South,191,3.0,4.0,81,0.00,,,0.00,Wunderground v.1.15,2013-05-03 14:09:00,
2013-05-03 10:11:00,77.0,70.4,29.78,WSW,257,4.0,6.0,80,0.00,,,0.00,Wunderground v.1.15,2013-05-03 14:11:00,
2013-05-03 10:12:00,77.0,70.7,29.78,SW,214,3.0,6.0,81,0.00,,,0.00,Wunderground v.1.15,2013-05-03 14:12:00,
2013-05-03 10:14:00,76.8,70.5,29.78,SW,215,1.0,6.0,81,0.00,,,0.00,Wunderground v.1.15,2013-05-03 14:14:00,
2013-05-03 10:15:00,76.7,70.1,29.78,West,260,2.0,6.0,80,0.00,,,0.00,Wunderground v.1.15,2013-05-03 14:15:00,
2013-05-03 10:16:00,76.6,70.3,29.78,WSW,255,3.0,6.0,81,0.00,,,0.00,Wunderground v.1.15,2013-05-03 14:16:00,
2013-05-03 10:18:00,76.6,70.3,29.78,SSW,200,1.0,6.0,81,0.00,,,0.00,Wunderground v.1.15,2013-05-03 14:18:00,
2013-05-03 10:19:00,76.6,70.3,29.78,SSE,167,2.0,6.0,81,0.00,,,0.00,Wunderground v.1.15,2013-05-03 14:19:00,
2013-05-03 10:20:00,76.7,70.4,29.78,SW,226,5.0,5.0,81,0.00,,,0.00,Wunderground v.1.15,2013-05-03 14:20:00,
2013-05-03 10:21:00,76.7,70.1,29.78,WSW,250,5.0,5.0,80,0.00,,,0.00,Wunderground v.1.15,2013-05-03 14:21:00,
2013-05-03 10:23:00,76.6,70.3,29.78,WSW,249,4.0,6.0,81,0.00,,,0.00,Wunderground v.1.15,2013-05-03 14:23:00,
2013-05-03 10:25:00,76.5,69.9,29.78,West,274,3.0,6.0,80,0.00,,,0.00,Wunderground v.1.15,2013-05-03 14:25:00,
2013-05-03 10:26:00,76.4,70.1,29.78,SW,226,2.0,6.0,81,0.00,,,0.00,Wunderground v.1.15,2013-05-03 14:26:00,
2013-05-03 10:27:00,76.3,70.0,29.78,West,277,0.0,6.0,81,0.00,,,0.00,Wunderground v.1.15,2013-05-03 14:27:00,
2013-05-03 10:29:00,76.3,70.0,29.78,SW,227,6.0,7.0,81,0.00,,,0.00,Wunderground v.1.15,2013-05-03 14:29:00,
2013-05-03 10:30:00,76.3,70.0,29.78,West,270,4.0,4.0,81,0.00,,,0.00,Wunderground v.1.15,2013-05-03 14:30:00,
2013-05-03 10:31:00,76.3,70.4,29.78,SSW,204,2.0,5.0,82,0.00,,,0.00,Wunderground v.1.15,2013-05-03 14:31:00,
2013-05-03 10:32:00,76.3,70.0,29.78,SW,234,4.0,5.0,81,0.00,,,0.00,Wunderground v.1.15,2013-05-03 14:32:00,
2013-05-03 10:34:00,76.3,70.0,29.78,SSW,212,5.0,8.0,81,0.00,,,0.00,Wunderground v.1.15,2013-05-03 14:34:00,
2013-05-03 10:35:00,76.2,69.9,29.78,WSW,246,4.0,8.0,81,0.00,,,0.00,Wunderground v.1.15,2013-05-03 14:35:00,
2013-05-03 10:37:00,76.0,69.7,29.78,WSW,245,2.0,8.0,81,0.00,,,0.00,Wunderground v.1.15,2013-05-03 14:37:00,
2013-05-03 10:39:00,75.9,70.0,29.78,WSW,246,7.0,8.0,82,0.00,,,0.00,Wunderground v.1.15,2013-05-03 14:39:00,
2013-05-03 10:43:00,76.0,70.5,29.78,SW,221,6.0,6.0,83,0.00,,,0.00,Wunderground v.1.15,2013-05-03 14:43:00,
2013-05-03 10:44:00,76.1,70.2,29.78,West,269,2.0,6.0,82,0.00,,,0.00,Wunderground v.1.15,2013-05-03 14:44:00,
2013-05-03 10:50:00,76.5,70.2,29.78,SSW,205,5.0,5.0,81,0.00,,,0.00,Wunderground v.1.15,2013-05-03 14:50:00,
2013-05-03 10:51:00,76.5,70.6,29.78,SSW,207,5.0,6.0,82,0.00,,,0.00,Wunderground v.1.15,2013-05-03 14:51:00,
2013-05-03 10:53:00,76.6,70.7,29.78,SW,236,4.0,6.0,82,0.00,,,0.00,Wunderground v.1.15,2013-05-03 14:53:00,
2013-05-03 10:55:00,76.5,70.2,29.78,SW,225,4.0,6.0,81,0.00,,,0.00,Wunderground v.1.15,2013-05-03 14:55:00,
2013-05-03 10:59:00,76.5,70.2,29.78,ESE,115,0.0,6.0,81,0.00,,,0.00,Wunderground v.1.15,2013-05-03 14:59:00,
2013-05-03 11:01:00,76.7,70.4,29.78,West,267,2.0,3.0,81,0.00,,,0.00,Wunderground v.1.15,2013-05-03 15:01:00,
2013-05-03 11:02:00,76.7,70.8,29.78,West,260,2.0,3.0,82,0.00,,,0.00,Wunderground v.1.15,2013-05-03 15:02:00,
2013-05-03 11:03:00,76.8,70.5,29.78,SW,226,3.0,3.0,81,0.00,,,0.00,Wunderground v.1.15,2013-05-03 15:03:00,
2013-05-03 11:05:00,77.0,70.7,29.78,SW,214,3.0,3.0,81,0.00,,,0.00,Wunderground v.1.15,2013-05-03 15:05:00,
2013-05-03 11:06:00,77.1,71.2,29.78,South,181,3.0,3.0,82,0.00,,,0.00,Wunderground v.1.15,2013-05-03 15:06:00,
2013-05-03 11:08:00,77.3,70.6,29.78,WNW,285,3.0,3.0,80,0.00,,,0.00,Wunderground v.1.15,2013-05-03 15:08:00,
2013-05-03 11:09:00,77.2,70.2,29.78,WNW,288,4.0,4.0,79,0.00,,,0.00,Wunderground v.1.15,2013-05-03 15:09:00,
2013-05-03 11:10:00,77.2,70.5,29.78,West,278,1.0,4.0,80,0.00,,,0.00,Wunderground v.1.15,2013-05-03 15:10:00,
2013-05-03 11:11:00,77.2,70.5,29.78,West,278,1.0,4.0,80,0.00,,,0.00,Wunderground v.1.15,2013-05-03 15:11:00,
2013-05-03 11:14:00,77.3,70.3,29.78,WSW,247,1.0,6.0,79,0.00,,,0.00,Wunderground v.1.15,2013-05-03 15:14:00,
2013-05-03 11:15:00,77.2,70.5,29.78,West,269,2.0,6.0,80,0.00,,,0.00,Wunderground v.1.15,2013-05-03 15:15:00,
2013-05-03 11:16:00,77.1,70.5,29.78,West,274,5.0,6.0,80,0.00,,,0.00,Wunderground v.1.15,2013-05-03 15:16:00,
2013-05-03 11:19:00,76.9,70.6,29.78,WSW,242,1.0,6.0,81,0.00,,,0.00,Wunderground v.1.15,2013-05-03 15:19:00,
2013-05-03 11:20:00,77.1,71.2,29.78,SW,236,3.0,3.0,82,0.00,,,0.00,Wunderground v.1.15,2013-05-03 15:20:00,
2013-05-03 11:21:00,77.2,70.9,29.78,SW,235,6.0,6.0,81,0.00,,,0.00,Wunderground v.1.15,2013-05-03 15:21:00,
2013-05-03 11:24:00,77.0,70.7,29.78,South,183,4.0,6.0,81,0.00,,,0.00,Wunderground v.1.15,2013-05-03 15:24:00,
2013-05-03 11:25:00,76.9,70.6,29.78,ESE,121,1.0,6.0,81,0.00,,,0.00,Wunderground v.1.15,2013-05-03 15:25:00,
2013-05-03 11:26:00,76.9,70.6,29.78,WSW,249,0.0,6.0,81,0.00,,,0.00,Wunderground v.1.15,2013-05-03 15:26:00,
2013-05-03 11:29:00,77.4,71.1,29.78,WNW,297,2.0,6.0,81,0.00,,,0.00,Wunderground v.1.15,2013-05-03 15:29:00,
2013-05-03 11:30:00,77.4,71.1,29.78,NW,309,3.0,5.0,81,0.00,,,0.00,Wunderground v.1.15,2013-05-03 15:30:00,
2013-05-03 11:31:00,77.5,71.2,29.78,WNW,284,4.0,6.0,81,0.00,,,0.00,Wunderground v.1.15,2013-05-03 15:31:00,
2013-05-03 11:32:00,77.6,71.3,29.78,NW,306,5.0,6.0,81,0.00,,,0.00,Wunderground v.1.15,2013-05-03 15:32:00,
2013-05-03 11:34:00,77.5,70.8,29.78,WNW,283,7.0,7.0,80,0.00,,,0.00,Wunderground v.1.15,2013-05-03 15:34:00,
2013-05-03 11:35:00,77.5,70.8,29.78,West,266,5.0,8.0,80,0.00,,,0.00,Wunderground v.1.15,2013-05-03 15:35:00,
2013-05-03 11:37:00,77.5,71.2,29.77,WSW,249,7.0,8.0,81,0.00,,,0.00,Wunderground v.1.15,2013-05-03 15:37:00,
2013-05-03 11:39:00,77.5,70.8,29.77,WNW,285,4.0,6.0,80,0.00,,,0.00,Wunderground v.1.15,2013-05-03 15:39:00,
2013-05-03 11:40:00,77.5,70.8,29.77,WNW,282,3.0,7.0,80,0.00,,,0.00,Wunderground v.1.15,2013-05-03 15:40:00,
2013-05-03 11:42:00,77.3,70.6,29.77,WNW,294,5.0,7.0,80,0.00,,,0.00,Wunderground v.1.15,2013-05-03 15:42:00,
2013-05-03 11:44:00,77.4,71.1,29.78,WNW,301,4.0,8.0,81,0.00,,,0.00,Wunderground v.1.15,2013-05-03 15:44:00,
2013-05-03 11:46:00,77.5,70.8,29.77,West,269,3.0,8.0,80,0.00,,,0.00,Wunderground v.1.15,2013-05-03 15:46:00,
2013-05-03 11:47:00,77.6,70.9,29.78,WSW,249,5.0,8.0,80,0.00,,,0.00,Wunderground v.1.15,2013-05-03 15:47:00,
2013-05-03 11:50:00,77.7,70.7,29.78,SW,217,4.0,6.0,79,0.00,,,0.00,Wunderground v.1.15,2013-05-03 15:50:00,
2013-05-03 11:51:00,77.6,70.6,29.78,West,259,4.0,6.0,79,0.00,,,0.00,Wunderground v.1.15,2013-05-03 15:51:00,
2013-05-03 11:52:00,77.5,70.5,29.77,West,271,4.0,6.0,79,0.00,,,0.00,Wunderground v.1.15,2013-05-03 15:52:00,
2013-05-03 11:53:00,77.5,70.8,29.77,West,281,3.0,6.0,80,0.00,,,0.00,Wunderground v.1.15,2013-05-03 15:53:00,
2013-05-03 11:55:00,77.7,71.0,29.77,WSW,239,7.0,8.0,80,0.00,,,0.00,Wunderground v.1.15,2013-05-03 15:55:00,
2013-05-03 11:56:00,77.6,70.9,29.77,WSW,257,4.0,8.0,80,0.00,,,0.00,Wunderground v.1.15,2013-05-03 15:56:00,
2013-05-03 11:57:00,77.6,70.9,29.77,WSW,252,5.0,9.0,80,0.00,,,0.00,Wunderground v.1.15,2013-05-03 15:57:00,
2013-05-03 11:58:00,77.6,70.9,29.77,WSW,251,6.0,9.0,80,0.00,,,0.00,Wunderground v.1.15,2013-05-03 15:58:00,
2013-05-03 12:00:00,77.4,70.7,29.77,WSW,248,5.0,7.0,80,0.00,,,0.00,Wunderground v.1.15,2013-05-03 16:00:00,
2013-05-03 12:01:00,77.4,70.7,29.77,WNW,285,6.0,7.0,80,0.00,,,0.00,Wunderground v.1.15,2013-05-03 16:01:00,
2013-05-03 12:03:00,77.5,70.8,29.77,West,261,5.0,7.0,80,0.00,,,0.00,Wunderground v.1.15,2013-05-03 16:03:00,
2013-05-03 12:04:00,77.5,70.8,29.77,WNW,285,4.0,7.0,80,0.00,,,0.00,Wunderground v.1.15,2013-05-03 16:04:00,
2013-05-03 12:05:00,77.5,71.2,29.77,WNW,301,4.0,7.0,81,0.00,,,0.00,Wunderground v.1.15,2013-05-03 16:05:00,
2013-05-03 12:06:00,77.5,71.2,29.77,SW,224,4.0,8.0,81,0.00,,,0.00,Wunderground v.1.15,2013-05-03 16:06:00,
2013-05-03 12:08:00,77.5,71.2,29.77,West,280,3.0,8.0,81,0.00,,,0.00,Wunderground v.1.15,2013-05-03 16:08:00,
2013-05-03 12:09:00,77.5,71.2,29.77,NW,316,5.0,8.0,81,0.00,,,0.00,Wunderground v.1.15,2013-05-03 16:09:00,
2013-05-03 12:10:00,77.3,71.0,29.77,WNW,287,4.0,7.0,81,0.00,,,0.00,Wunderground v.1.15,2013-05-03 16:10:00,
2013-05-03 12:11:00,77.2,71.3,29.77,WNW,291,4.0,8.0,82,0.00,,,0.00,Wunderground v.1.15,2013-05-03 16:11:00,
2013-05-03 12:14:00,77.2,71.3,29.77,WNW,288,3.0,8.0,82,0.00,,,0.00,Wunderground v.1.15,2013-05-03 16:14:00,
2013-05-03 12:16:00,77.1,71.2,29.78,WNW,293,7.0,9.0,82,0.00,,,0.00,Wunderground v.1.15,2013-05-03 16:16:00,
2013-05-03 12:19:00,77.1,71.2,29.77,NW,306,2.0,9.0,82,0.00,,,0.00,Wunderground v.1.15,2013-05-03 16:19:00,
2013-05-03 12:21:00,77.0,71.1,29.77,WNW,300,6.0,9.0,82,0.00,,,0.00,Wunderground v.1.15,2013-05-03 16:21:00,
2013-05-03 12:22:00,77.0,71.1,29.78,WNW,300,6.0,9.0,82,0.00,,,0.00,Wunderground v.1.15,2013-05-03 16:22:00,
2013-05-03 12:24:00,76.9,71.3,29.77,West,280,8.0,9.0,83,0.00,,,0.00,Wunderground v.1.15,2013-05-03 16:24:00,
2013-05-03 12:25:00,76.9,71.0,29.78,West,270,4.0,10.0,82,0.00,,,0.00,Wunderground v.1.15,2013-05-03 16:25:00,
2013-05-03 12:26:00,76.8,71.2,29.78,NW,309,3.0,10.0,83,0.00,,,0.00,Wunderground v.1.15,2013-05-03 16:26:00,
2013-05-03 12:27:00,76.9,71.3,29.78,WNW,302,3.0,10.0,83,0.00,,,0.00,Wunderground v.1.15,2013-05-03 16:27:00,
2013-05-03 12:29:00,76.9,71.0,29.78,NW,319,4.0,10.0,82,0.00,,,0.00,Wunderground v.1.15,2013-05-03 16:29:00,
2013-05-03 12:30:00,77.1,71.5,29.78,WNW,290,4.0,7.0,83,0.00,,,0.00,Wunderground v.1.15,2013-05-03 16:30:00,
2013-05-03 12:31:00,77.1,71.2,29.78,WNW,296,4.0,7.0,82,0.00,,,0.00,Wunderground v.1.15,2013-05-03 16:31:00,
2013-05-03 12:32:00,77.2,71.3,29.77,WNW,295,5.0,8.0,82,0.00,,,0.00,Wunderground v.1.15,2013-05-03 16:32:00,
2013-05-03 12:34:00,77.2,70.9,29.77,West,278,5.0,9.0,81,0.00,,,0.00,Wunderground v.1.15,2013-05-03 16:34:00,
2013-05-03 12:35:00,77.2,71.3,29.77,West,273,4.0,9.0,82,0.00,,,0.00,Wunderground v.1.15,2013-05-03 16:35:00,
2013-05-03 12:36:00,77.2,71.3,29.77,WSW,255,6.0,9.0,82,0.00,,,0.00,Wunderground v.1.15,2013-05-03 16:36:00,
2013-05-03 12:37:00,77.3,71.4,29.77,WSW,248,4.0,9.0,82,0.00,,,0.00,Wunderground v.1.15,2013-05-03 16:37:00,
2013-05-03 12:39:00,77.8,71.9,29.77,West,269,5.0,5.0,82,0.00,,,0.00,Wunderground v.1.15,2013-05-03 16:39:00,
2013-05-03 12:40:00,78.0,72.1,29.77,WNW,290,7.0,8.0,82,0.00,,,0.00,Wunderground v.1.15,2013-05-03 16:40:00,
2013-05-03 12:41:00,78.1,71.4,29.77,West,276,7.0,9.0,80,0.00,,,0.00,Wunderground v.1.15,2013-05-03 16:41:00,
2013-05-03 12:43:00,77.9,71.2,29.77,West,281,7.0,11.0,80,0.00,,,0.00,Wunderground v.1.15,2013-05-03 16:43:00,
2013-05-03 12:44:00,77.7,71.0,29.77,WSW,241,3.0,11.0,80,0.00,,,0.00,Wunderground v.1.15,2013-05-03 16:44:00,
2013-05-03 12:46:00,77.8,71.5,29.77,WNW,282,6.0,11.0,81,0.00,,,0.00,Wunderground v.1.15,2013-05-03 16:46:00,
2013-05-03 12:47:00,77.9,71.6,29.77,NW,318,7.0,11.0,81,0.00,,,0.00,Wunderground v.1.15,2013-05-03 16:47:00,
2013-05-03 12:48:00,77.8,70.8,29.77,West,276,5.0,11.0,79,0.00,,,0.00,Wunderground v.1.15,2013-05-03 16:48:00,
2013-05-03 12:49:00,77.6,70.9,29.77,NW,304,4.0,5.0,80,0.00,,,0.00,Wunderground v.1.15,2013-05-03 16:49:00,
2013-05-03 12:51:00,77.6,71.3,29.77,WNW,300,5.0,9.0,81,0.00,,,0.00,Wunderground v.1.15,2013-05-03 16:51:00,
2013-05-03 12:52:00,77.5,70.8,29.77,NW,314,6.0,9.0,80,0.00,,,0.00,Wunderground v.1.15,2013-05-03 16:52:00,
2013-05-03 12:53:00,77.5,70.8,29.77,NW,319,5.0,9.0,80,0.00,,,0.00,Wunderground v.1.15,2013-05-03 16:53:00,
2013-05-03 12:54:00,77.4,71.1,29.77,NNW,337,4.0,9.0,81,0.00,,,0.00,Wunderground v.1.15,2013-05-03 16:54:00,
2013-05-03 12:56:00,77.4,70.7,29.77,West,279,4.0,9.0,80,0.00,,,0.00,Wunderground v.1.15,2013-05-03 16:56:00,
2013-05-03 12:57:00,77.3,71.0,29.77,West,271,4.0,9.0,81,0.00,,,0.00,Wunderground v.1.15,2013-05-03 16:57:00,
2013-05-03 12:58:00,77.4,71.1,29.77,West,280,3.0,9.0,81,0.00,,,0.00,Wunderground v.1.15,2013-05-03 16:58:00,
2013-05-03 12:59:00,77.5,71.2,29.77,WNW,287,4.0,7.0,81,0.00,,,0.00,Wunderground v.1.15,2013-05-03 16:59:00,
2013-05-03 13:01:00,77.5,71.2,29.76,WNW,293,4.0,7.0,81,0.00,,,0.00,Wunderground v.1.15,2013-05-03 17:01:00,
2013-05-03 13:02:00,77.5,71.2,29.76,WNW,294,3.0,7.0,81,0.00,,,0.00,Wunderground v.1.15,2013-05-03 17:02:00,
2013-05-03 13:03:00,77.6,71.3,29.76,WSW,247,4.0,7.0,81,0.00,,,0.00,Wunderground v.1.15,2013-05-03 17:03:00,
2013-05-03 13:05:00,78.2,72.3,29.76,WNW,283,5.0,7.0,82,0.00,,,0.00,Wunderground v.1.15,2013-05-03 17:05:00,
2013-05-03 13:06:00,78.3,72.0,29.76,WNW,288,7.0,8.0,81,0.00,,,0.00,Wunderground v.1.15,2013-05-03 17:06:00,
2013-05-03 13:07:00,78.3,71.2,29.76,WNW,294,3.0,8.0,79,0.00,,,0.00,Wunderground v.1.15,2013-05-03 17:07:00,
2013-05-03 13:08:00,78.3,71.6,29.76,NW,326,6.0,9.0,80,0.00,,,0.00,Wunderground v.1.15,2013-05-03 17:08:00,
2013-05-03 13:10:00,78.1,71.1,29.76,ENE,73,3.0,7.0,79,0.00,,,0.00,Wunderground v.1.15,2013-05-03 17:10:00,
2013-05-03 13:11:00,77.9,71.2,29.76,WNW,289,6.0,9.0,80,0.00,,,0.00,Wunderground v.1.15,2013-05-03 17:11:00,
2013-05-03 13:12:00,77.9,71.2,29.76,WNW,294,6.0,9.0,80,0.00,,,0.00,Wunderground v.1.15,2013-05-03 17:12:00,
2013-05-03 13:13:00,77.8,71.1,29.76,West,281,4.0,9.0,80,0.00,,,0.00,Wunderground v.1.15,2013-05-03 17:13:00,
2013-05-03 13:15:00,77.8,71.5,29.76,WNW,291,8.0,9.0,81,0.00,,,0.00,Wunderground v.1.15,2013-05-03 17:15:00,
2013-05-03 13:17:00,78.0,71.7,29.76,WNW,285,5.0,9.0,81,0.00,,,0.00,Wunderground v.1.15,2013-05-03 17:17:00,
2013-05-03 13:19:00,78.2,71.5,29.76,West,259,7.0,9.0,80,0.00,,,0.00,Wunderground v.1.15,2013-05-03 17:19:00,
2013-05-03 13:20:00,78.3,70.9,29.76,West,280,4.0,9.0,78,0.00,,,0.00,Wunderground v.1.15,2013-05-03 17:20:00,
2013-05-03 13:22:00,78.1,71.1,29.76,West,271,4.0,9.0,79,0.00,,,0.00,Wunderground v.1.15,2013-05-03 17:22:00,
2013-05-03 13:24:00,78.1,71.4,29.76,West,263,7.0,9.0,80,0.00,,,0.00,Wunderground v.1.15,2013-05-03 17:24:00,
2013-05-03 13:25:00,78.0,71.0,29.76,WNW,290,4.0,9.0,79,0.00,,,0.00,Wunderground v.1.15,2013-05-03 17:25:00,
2013-05-03 13:27:00,78.1,71.1,29.76,WSW,253,5.0,9.0,79,0.00,,,0.00,Wunderground v.1.15,2013-05-03 17:27:00,
2013-05-03 13:28:00,78.1,71.1,29.76,West,274,5.0,9.0,79,0.00,,,0.00,Wunderground v.1.15,2013-05-03 17:28:00,
2013-05-03 13:29:00,78.0,70.6,29.76,WSW,256,4.0,15.0,78,0.00,,,0.00,Wunderground v.1.15,2013-05-03 17:29:00,
2013-05-03 13:30:00,78.0,71.3,29.76,WSW,256,10.0,10.0,80,0.00,,,0.00,Wunderground v.1.15,2013-05-03 17:30:00,
2013-05-03 13:32:00,77.8,70.8,29.76,SW,235,6.0,11.0,79,0.00,,,0.00,Wunderground v.1.15,2013-05-03 17:32:00,
2013-05-03 13:33:00,77.9,71.2,29.76,WNW,289,4.0,11.0,80,0.00,,,0.00,Wunderground v.1.15,2013-05-03 17:33:00,
2013-05-03 13:34:00,78.0,71.0,29.76,WNW,301,4.0,11.0,79,0.00,,,0.00,Wunderground v.1.15,2013-05-03 17:34:00,
2013-05-03 13:35:00,78.1,71.1,29.76,NW,304,3.0,11.0,79,0.00,,,0.00,Wunderground v.1.15,2013-05-03 17:35:00,
2013-05-03 13:37:00,78.3,70.9,29.76,West,265,6.0,11.0,78,0.00,,,0.00,Wunderground v.1.15,2013-05-03 17:37:00,
2013-05-03 13:38:00,78.2,70.8,29.76,West,262,6.0,11.0,78,0.00,,,0.00,Wunderground v.1.15,2013-05-03 17:38:00,
2013-05-03 13:40:00,78.3,70.9,29.76,WSW,256,6.0,7.0,78,0.00,,,0.00,Wunderground v.1.15,2013-05-03 17:40:00,
2013-05-03 13:43:00,78.2,70.8,29.76,West,280,3.0,10.0,78,0.00,,,0.00,Wunderground v.1.15,2013-05-03 17:43:00,
2013-05-03 13:44:00,78.3,70.9,29.75,WSW,240,10.0,10.0,78,0.00,,,0.00,Wunderground v.1.15,2013-05-03 17:44:00,
2013-05-03 13:45:00,78.2,70.8,29.75,WSW,254,5.0,10.0,78,0.00,,,0.00,Wunderground v.1.15,2013-05-03 17:45:00,
2013-05-03 13:46:00,78.2,71.2,29.75,SW,236,7.0,10.0,79,0.00,,,0.00,Wunderground v.1.15,2013-05-03 17:46:00,
2013-05-03 13:48:00,78.4,71.3,29.75,West,269,2.0,10.0,79,0.00,,,0.00,Wunderground v.1.15,2013-05-03 17:48:00,
2013-05-03 13:49:00,78.5,71.4,29.75,WSW,252,7.0,10.0,79,0.00,,,0.00,Wunderground v.1.15,2013-05-03 17:49:00,
2013-05-03 13:50:00,78.7,70.9,29.75,SSW,210,1.0,7.0,77,0.00,,,0.00,Wunderground v.1.15,2013-05-03 17:50:00,
2013-05-03 13:51:00,78.8,71.4,29.75,WNW,297,4.0,7.0,78,0.00,,,0.00,Wunderground v.1.15,2013-05-03 17:51:00,
2013-05-03 13:54:00,79.3,71.5,29.75,West,280,2.0,7.0,77,0.00,,,0.00,Wunderground v.1.15,2013-05-03 17:54:00,
2013-05-03 13:56:00,79.6,71.8,29.75,SW,222,5.0,8.0,77,0.00,,,0.00,Wunderground v.1.15,2013-05-03 17:56:00,
2013-05-03 13:59:00,79.6,71.0,29.75,West,260,10.0,11.0,75,0.00,,,0.00,Wunderground v.1.15,2013-05-03 17:59:00,
2013-05-03 14:00:00,79.3,70.7,29.75,WNW,287,8.0,10.0,75,0.00,,,0.00,Wunderground v.1.15,2013-05-03 18:00:00,
2013-05-03 14:01:00,79.2,70.6,29.75,West,270,6.0,10.0,75,0.00,,,0.00,Wunderground v.1.15,2013-05-03 18:01:00,
2013-05-03 14:04:00,78.9,71.5,29.75,WNW,289,4.0,10.0,78,0.00,,,0.00,Wunderground v.1.15,2013-05-03 18:04:00,
2013-05-03 14:05:00,79.1,71.3,29.75,WSW,249,5.0,11.0,77,0.00,,,0.00,Wunderground v.1.15,2013-05-03 18:05:00,
2013-05-03 14:06:00,79.1,71.3,29.75,West,271,4.0,11.0,77,0.00,,,0.00,Wunderground v.1.15,2013-05-03 18:06:00,
2013-05-03 14:07:00,79.1,71.3,29.75,West,274,10.0,12.0,77,0.00,,,0.00,Wunderground v.1.15,2013-05-03 18:07:00,
2013-05-03 14:09:00,79.3,71.5,29.75,NW,305,2.0,12.0,77,0.00,,,0.00,Wunderground v.1.15,2013-05-03 18:09:00,
2013-05-03 14:11:00,79.2,71.0,29.75,WSW,248,4.0,13.0,76,0.00,,,0.00,Wunderground v.1.15,2013-05-03 18:11:00,
2013-05-03 14:12:00,79.2,71.7,29.75,West,271,3.0,13.0,78,0.00,,,0.00,Wunderground v.1.15,2013-05-03 18:12:00,
2013-05-03 14:14:00,79.0,71.2,29.75,West,270,5.0,13.0,77,0.00,,,0.00,Wunderground v.1.15,2013-05-03 18:14:00,
2013-05-03 14:16:00,79.0,71.2,29.75,WNW,290,5.0,13.0,77,0.00,,,0.00,Wunderground v.1.15,2013-05-03 18:16:00,
2013-05-03 14:17:00,79.2,71.7,29.75,South,177,3.0,13.0,78,0.00,,,0.00,Wunderground v.1.15,2013-05-03 18:17:00,
2013-05-03 14:19:00,79.8,71.9,29.74,WSW,252,8.0,8.0,77,0.00,,,0.00,Wunderground v.1.15,2013-05-03 18:19:00,
2013-05-03 14:20:00,79.8,71.6,29.74,SW,229,5.0,9.0,76,0.00,,,0.00,Wunderground v.1.15,2013-05-03 18:20:00,
2013-05-03 14:21:00,79.8,71.6,29.74,WSW,243,6.0,9.0,76,0.00,,,0.00,Wunderground v.1.15,2013-05-03 18:21:00,
2013-05-03 14:23:00,79.8,71.2,29.75,West,273,10.0,13.0,75,0.00,,,0.00,Wunderground v.1.15,2013-05-03 18:23:00,
2013-05-03 14:24:00,79.6,71.0,29.74,SW,218,4.0,13.0,75,0.00,,,0.00,Wunderground v.1.15,2013-05-03 18:24:00,
2013-05-03 14:25:00,79.6,71.4,29.74,WSW,258,2.0,13.0,76,0.00,,,0.00,Wunderground v.1.15,2013-05-03 18:25:00,
2013-05-03 14:26:00,79.6,71.0,29.74,WNW,283,5.0,13.0,75,0.00,,,0.00,Wunderground v.1.15,2013-05-03 18:26:00,
2013-05-03 14:28:00,79.3,71.1,29.74,WNW,297,6.0,13.0,76,0.00,,,0.00,Wunderground v.1.15,2013-05-03 18:28:00,
2013-05-03 14:29:00,79.1,70.5,29.74,WSW,250,4.0,7.0,75,0.00,,,0.00,Wunderground v.1.15,2013-05-03 18:29:00,
2013-05-03 14:30:00,78.9,70.3,29.74,SW,233,11.0,11.0,75,0.00,,,0.00,Wunderground v.1.15,2013-05-03 18:30:00,
2013-05-03 14:31:00,78.8,71.0,29.74,WNW,283,5.0,11.0,77,0.00,,,0.00,Wunderground v.1.15,2013-05-03 18:31:00,
2013-05-03 14:33:00,78.7,70.5,29.74,SW,224,3.0,11.0,76,0.00,,,0.00,Wunderground v.1.15,2013-05-03 18:33:00,
2013-05-03 14:35:00,78.9,71.1,29.74,WSW,241,6.0,11.0,77,0.00,,,0.00,Wunderground v.1.15,2013-05-03 18:35:00,
2013-05-03 14:36:00,79.2,71.7,29.74,NW,320,2.0,11.0,78,0.00,,,0.00,Wunderground v.1.15,2013-05-03 18:36:00,
2013-05-03 14:38:00,79.3,70.7,29.74,West,280,5.0,11.0,75,0.00,,,0.00,Wunderground v.1.15,2013-05-03 18:38:00,
2013-05-03 14:40:00,78.8,70.2,29.74,WSW,249,9.0,12.0,75,0.00,,,0.00,Wunderground v.1.15,2013-05-03 18:40:00,
2013-05-03 14:41:00,78.5,70.3,29.74,West,262,5.0,12.0,76,0.00,,,0.00,Wunderground v.1.15,2013-05-03 18:41:00,
2013-05-03 14:42:00,78.5,70.7,29.74,West,278,1.0,12.0,77,0.00,,,0.00,Wunderground v.1.15,2013-05-03 18:42:00,
2013-05-03 14:43:00,78.5,70.7,29.74,WNW,288,3.0,12.0,77,0.00,,,0.00,Wunderground v.1.15,2013-05-03 18:43:00,
2013-05-03 14:44:00,78.5,70.7,29.74,WNW,293,8.0,12.0,77,0.00,,,0.00,Wunderground v.1.15,2013-05-03 18:44:00,
2013-05-03 14:45:00,78.5,70.7,29.74,SW,236,7.0,12.0,77,0.00,,,0.00,Wunderground v.1.15,2013-05-03 18:45:00,
2013-05-03 14:46:00,78.5,70.7,29.74,West,270,5.0,12.0,77,0.00,,,0.00,Wunderground v.1.15,2013-05-03 18:46:00,
2013-05-03 14:47:00,78.5,71.1,29.74,SW,236,4.0,12.0,78,0.00,,,0.00,Wunderground v.1.15,2013-05-03 18:47:00,
2013-05-03 14:48:00,78.6,70.8,29.74,WNW,289,3.0,12.0,77,0.00,,,0.00,Wunderground v.1.15,2013-05-03 18:48:00,
2013-05-03 14:49:00,78.7,70.9,29.74,West,270,4.0,12.0,77,0.00,,,0.00,Wunderground v.1.15,2013-05-03 18:49:00,
2013-05-03 14:50:00,78.9,71.1,29.74,West,276,4.0,6.0,77,0.00,,,0.00,Wunderground v.1.15,2013-05-03 18:50:00,
2013-05-03 14:52:00,79.1,70.9,29.74,WSW,250,5.0,11.0,76,0.00,,,0.00,Wunderground v.1.15,2013-05-03 18:52:00,
2013-05-03 14:54:00,79.3,71.1,29.74,West,280,2.0,11.0,76,0.00,,,0.00,Wunderground v.1.15,2013-05-03 18:54:00,
2013-05-03 14:55:00,79.4,71.2,29.74,WSW,253,8.0,11.0,76,0.00,,,0.00,Wunderground v.1.15,2013-05-03 18:55:00,
2013-05-03 14:57:00,79.2,71.0,29.74,West,274,1.0,13.0,76,0.00,,,0.00,Wunderground v.1.15,2013-05-03 18:57:00,
2013-05-03 14:59:00,79.0,70.8,29.74,WNW,298,7.0,13.0,76,0.00,,,0.00,Wunderground v.1.15,2013-05-03 18:59:00,
2013-05-03 15:00:00,79.0,70.8,29.74,West,259,11.0,12.0,76,0.00,,,0.00,Wunderground v.1.15,2013-05-03 19:00:00,
2013-05-03 15:02:00,78.6,70.8,29.74,SW,225,4.0,12.0,77,0.00,,,0.00,Wunderground v.1.15,2013-05-03 19:02:00,
2013-05-03 15:04:00,78.6,71.5,29.74,WNW,288,11.0,12.0,79,0.00,,,0.00,Wunderground v.1.15,2013-05-03 19:04:00,
2013-05-03 15:05:00,78.5,71.1,29.74,NW,305,9.0,12.0,78,0.00,,,0.00,Wunderground v.1.15,2013-05-03 19:05:00,
2013-05-03 15:07:00,78.3,71.2,29.74,West,269,6.0,12.0,79,0.00,,,0.00,Wunderground v.1.15,2013-05-03 19:07:00,
2013-05-03 15:08:00,78.2,70.8,29.74,West,269,2.0,12.0,78,0.00,,,0.00,Wunderground v.1.15,2013-05-03 19:08:00,
2013-05-03 15:09:00,78.1,70.7,29.74,West,262,3.0,12.0,78,0.00,,,0.00,Wunderground v.1.15,2013-05-03 19:09:00,
2013-05-03 15:10:00,78.3,71.2,29.73,WNW,283,11.0,11.0,79,0.00,,,0.00,Wunderground v.1.15,2013-05-03 19:10:00,
2013-05-03 15:13:00,78.5,71.4,29.73,WSW,240,3.0,11.0,79,0.00,,,0.00,Wunderground v.1.15,2013-05-03 19:13:00,
2013-05-03 15:14:00,78.6,71.5,29.74,West,281,8.0,11.0,79,0.00,,,0.00,Wunderground v.1.15,2013-05-03 19:14:00,
2013-05-03 15:15:00,78.6,71.2,29.74,WNW,297,9.0,11.0,78,0.00,,,0.00,Wunderground v.1.15,2013-05-03 19:15:00,
2013-05-03 15:18:00,78.4,71.0,29.74,NW,309,5.0,12.0,78,0.00,,,0.00,Wunderground v.1.15,2013-05-03 19:18:00,
2013-05-03 15:19:00,78.3,70.9,29.74,WNW,293,6.0,12.0,78,0.00,,,0.00,Wunderground v.1.15,2013-05-03 19:19:00,
2013-05-03 15:21:00,78.2,71.2,29.73,WNW,283,7.0,12.0,79,0.00,,,0.00,Wunderground v.1.15,2013-05-03 19:21:00,
2013-05-03 15:23:00,78.0,71.0,29.73,West,262,4.0,12.0,79,0.00,,,0.00,Wunderground v.1.15,2013-05-03 19:23:00,
2013-05-03 15:24:00,78.2,71.2,29.73,West,269,2.0,12.0,79,0.00,,,0.00,Wunderground v.1.15,2013-05-03 19:24:00,
2013-05-03 15:25:00,78.2,71.2,29.73,West,276,2.0,12.0,79,0.00,,,0.00,Wunderground v.1.15,2013-05-03 19:25:00,
2013-05-03 15:26:00,78.3,71.2,29.73,West,276,6.0,12.0,79,0.00,,,0.00,Wunderground v.1.15,2013-05-03 19:26:00,
2013-05-03 15:28:00,78.7,70.9,29.73,West,278,9.0,12.0,77,0.00,,,0.00,Wunderground v.1.15,2013-05-03 19:28:00,
2013-05-03 15:29:00,78.5,70.3,29.73,WNW,298,4.0,6.0,76,0.00,,,0.00,Wunderground v.1.15,2013-05-03 19:29:00,
2013-05-03 15:30:00,78.5,70.7,29.73,West,266,11.0,11.0,77,0.00,,,0.00,Wunderground v.1.15,2013-05-03 19:30:00,
2013-05-03 15:32:00,78.2,70.0,29.73,WNW,291,6.0,11.0,76,0.00,,,0.00,Wunderground v.1.15,2013-05-03 19:32:00,
2013-05-03 15:34:00,78.2,70.4,29.73,WNW,285,3.0,11.0,77,0.00,,,0.00,Wunderground v.1.15,2013-05-03 19:34:00,
2013-05-03 15:35:00,78.3,70.5,29.73,WNW,287,7.0,12.0,77,0.00,,,0.00,Wunderground v.1.15,2013-05-03 19:35:00,
2013-05-03 15:37:00,78.1,70.3,29.73,WNW,288,4.0,12.0,77,0.00,,,0.00,Wunderground v.1.15,2013-05-03 19:37:00,
2013-05-03 15:39:00,78.1,70.3,29.73,WNW,300,3.0,12.0,77,0.00,,,0.00,Wunderground v.1.15,2013-05-03 19:39:00,
2013-05-03 15:40:00,78.2,70.8,29.72,SW,233,6.0,7.0,78,0.00,,,0.00,Wunderground v.1.15,2013-05-03 19:40:00,
2013-05-03 15:42:00,78.5,71.1,29.72,WSW,254,6.0,12.0,78,0.00,,,0.00,Wunderground v.1.15,2013-05-03 19:42:00,
2013-05-03 15:44:00,78.6,70.8,29.72,WSW,240,8.0,12.0,77,0.00,,,0.00,Wunderground v.1.15,2013-05-03 19:44:00,
2013-05-03 15:45:00,78.5,70.7,29.72,West,272,3.0,12.0,77,0.00,,,0.00,Wunderground v.1.15,2013-05-03 19:45:00,
2013-05-03 15:47:00,78.5,71.1,29.72,West,274,9.0,12.0,78,0.00,,,0.00,Wunderground v.1.15,2013-05-03 19:47:00,
2013-05-03 15:49:00,78.6,71.2,29.72,WNW,288,7.0,12.0,78,0.00,,,0.00,Wunderground v.1.15,2013-05-03 19:49:00,
2013-05-03 15:50:00,78.7,70.9,29.72,WSW,254,7.0,7.0,77,0.00,,,0.00,Wunderground v.1.15,2013-05-03 19:50:00,
2013-05-03 15:52:00,79.0,71.2,29.72,West,271,4.0,10.0,77,0.00,,,0.00,Wunderground v.1.15,2013-05-03 19:52:00,
2013-05-03 15:54:00,79.2,71.0,29.72,West,277,5.0,12.0,76,0.00,,,0.00,Wunderground v.1.15,2013-05-03 19:54:00,
2013-05-03 15:55:00,79.0,70.8,29.72,SW,233,5.0,12.0,76,0.00,,,0.00,Wunderground v.1.15,2013-05-03 19:55:00,
2013-05-03 15:56:00,79.0,70.8,29.72,West,276,6.0,12.0,76,0.00,,,0.00,Wunderground v.1.15,2013-05-03 19:56:00,
2013-05-03 15:58:00,78.8,70.2,29.72,SW,235,10.0,12.0,75,0.00,,,0.00,Wunderground v.1.15,2013-05-03 19:58:00,
2013-05-03 15:59:00,78.6,70.4,29.72,WSW,257,7.0,12.0,76,0.00,,,0.00,Wunderground v.1.15,2013-05-03 19:59:00,
2013-05-03 16:00:00,78.5,70.3,29.72,WSW,256,8.0,8.0,76,0.00,,,0.00,Wunderground v.1.15,2013-05-03 20:00:00,
2013-05-03 16:01:00,78.5,70.3,29.72,WNW,296,8.0,8.0,76,0.00,,,0.00,Wunderground v.1.15,2013-05-03 20:01:00,
2013-05-03 16:03:00,78.7,70.9,29.72,SW,219,5.0,10.0,77,0.00,,,0.00,Wunderground v.1.15,2013-05-03 20:03:00,
2013-05-03 16:04:00,78.8,70.6,29.72,SW,222,7.0,11.0,76,0.00,,,0.00,Wunderground v.1.15,2013-05-03 20:04:00,
2013-05-03 16:05:00,78.8,70.2,29.71,West,263,10.0,11.0,75,0.00,,,0.00,Wunderground v.1.15,2013-05-03 20:05:00,
2013-05-03 16:06:00,78.8,70.6,29.71,WNW,284,10.0,11.0,76,0.00,,,0.00,Wunderground v.1.15,2013-05-03 20:06:00,
2013-05-03 16:08:00,78.5,70.7,29.71,NW,315,4.0,11.0,77,0.00,,,0.00,Wunderground v.1.15,2013-05-03 20:08:00,
2013-05-03 16:09:00,78.4,70.6,29.71,West,270,9.0,13.0,77,0.00,,,0.00,Wunderground v.1.15,2013-05-03 20:09:00,
2013-05-03 16:11:00,78.4,70.2,29.71,West,269,4.0,13.0,76,0.00,,,0.00,Wunderground v.1.15,2013-05-03 20:11:00,
2013-05-03 16:13:00,78.5,70.3,29.71,NW,315,3.0,13.0,76,0.00,,,0.00,Wunderground v.1.15,2013-05-03 20:13:00,
2013-05-03 16:15:00,78.7,70.9,29.71,WNW,288,16.0,16.0,77,0.00,,,0.00,Wunderground v.1.15,2013-05-03 20:15:00,
2013-05-03 16:16:00,78.7,70.9,29.71,West,276,9.0,16.0,77,0.00,,,0.00,Wunderground v.1.15,2013-05-03 20:16:00,
2013-05-03 16:17:00,78.6,70.8,29.71,WNW,295,4.0,16.0,77,0.00,,,0.00,Wunderground v.1.15,2013-05-03 20:17:00,
2013-05-03 16:18:00,78.5,70.3,29.71,SW,226,4.0,16.0,76,0.00,,,0.00,Wunderground v.1.15,2013-05-03 20:18:00,
2013-05-03 16:20:00,78.5,70.7,29.71,West,276,12.0,13.0,77,0.00,,,0.00,Wunderground v.1.15,2013-05-03 20:20:00,
2013-05-03 16:21:00,78.5,70.7,29.71,WSW,257,12.0,13.0,77,0.00,,,0.00,Wunderground v.1.15,2013-05-03 20:21:00,
2013-05-03 16:22:00,78.3,70.5,29.71,WNW,293,3.0,13.0,77,0.00,,,0.00,Wunderground v.1.15,2013-05-03 20:22:00,
2013-05-03 16:23:00,78.3,70.1,29.71,WSW,246,9.0,13.0,76,0.00,,,0.00,Wunderground v.1.15,2013-05-03 20:23:00,
2013-05-03 16:25:00,78.3,70.1,29.71,West,269,4.0,13.0,76,0.00,,,0.00,Wunderground v.1.15,2013-05-03 20:25:00,
2013-05-03 16:26:00,78.3,70.1,29.71,WNW,285,5.0,13.0,76,0.00,,,0.00,Wunderground v.1.15,2013-05-03 20:26:00,
2013-05-03 16:27:00,78.3,70.5,29.71,WNW,282,2.0,13.0,77,0.00,,,0.00,Wunderground v.1.15,2013-05-03 20:27:00,
2013-05-03 16:28:00,78.4,70.6,29.71,West,274,7.0,13.0,77,0.00,,,0.00,Wunderground v.1.15,2013-05-03 20:28:00,
2013-05-03 16:30:00,78.5,70.3,29.71,WSW,241,6.0,9.0,76,0.00,,,0.00,Wunderground v.1.15,2013-05-03 20:30:00,
2013-05-03 16:31:00,78.4,70.2,29.71,WNW,295,4.0,9.0,76,0.00,,,0.00,Wunderground v.1.15,2013-05-03 20:31:00,
2013-05-03 16:32:00,78.5,70.3,29.71,West,278,6.0,12.0,76,0.00,,,0.00,Wunderground v.1.15,2013-05-03 20:32:00,
2013-05-03 16:33:00,78.4,69.8,29.71,WNW,290,5.0,13.0,75,0.00,,,0.00,Wunderground v.1.15,2013-05-03 20:33:00,
2013-05-03 16:35:00,78.3,69.7,29.71,SW,236,7.0,13.0,75,0.00,,,0.00,Wunderground v.1.15,2013-05-03 20:35:00,
2013-05-03 16:36:00,78.3,69.3,29.71,West,281,6.0,13.0,74,0.00,,,0.00,Wunderground v.1.15,2013-05-03 20:36:00,
2013-05-03 16:37:00,78.2,69.6,29.71,West,281,8.0,13.0,75,0.00,,,0.00,Wunderground v.1.15,2013-05-03 20:37:00,
2013-05-03 16:38:00,78.0,69.4,29.71,West,276,6.0,13.0,75,0.00,,,0.00,Wunderground v.1.15,2013-05-03 20:38:00,
2013-05-03 16:39:00,78.0,69.4,29.71,West,259,7.0,13.0,75,0.00,,,0.00,Wunderground v.1.15,2013-05-03 20:39:00,
2013-05-03 16:40:00,77.9,69.7,29.71,WNW,300,7.0,11.0,76,0.00,,,0.00,Wunderground v.1.15,2013-05-03 20:40:00,
2013-05-03 16:41:00,78.0,70.2,29.71,West,259,6.0,11.0,77,0.00,,,0.00,Wunderground v.1.15,2013-05-03 20:41:00,
2013-05-03 16:42:00,78.1,69.9,29.71,West,277,6.0,11.0,76,0.00,,,0.00,Wunderground v.1.15,2013-05-03 20:42:00,
2013-05-03 16:44:00,78.1,69.9,29.71,WNW,300,6.0,11.0,76,0.00,,,0.00,Wunderground v.1.15,2013-05-03 20:44:00,
2013-05-03 16:46:00,78.3,70.1,29.71,West,266,6.0,11.0,76,0.00,,,0.00,Wunderground v.1.15,2013-05-03 20:46:00,
2013-05-03 16:47:00,78.3,70.5,29.71,WSW,253,6.0,11.0,77,0.00,,,0.00,Wunderground v.1.15,2013-05-03 20:47:00,
2013-05-03 16:48:00,78.3,70.1,29.71,West,260,5.0,11.0,76,0.00,,,0.00,Wunderground v.1.15,2013-05-03 20:48:00,
2013-05-03 16:49:00,78.4,70.2,29.71,West,278,3.0,11.0,76,0.00,,,0.00,Wunderground v.1.15,2013-05-03 20:49:00,
2013-05-03 16:51:00,78.4,69.8,29.71,WSW,250,6.0,14.0,75,0.00,,,0.00,Wunderground v.1.15,2013-05-03 20:51:00,
2013-05-03 16:52:00,78.3,69.7,29.71,West,266,5.0,14.0,75,0.00,,,0.00,Wunderground v.1.15,2013-05-03 20:52:00,
2013-05-03 16:53:00,78.3,69.7,29.71,WSW,251,5.0,14.0,75,0.00,,,0.00,Wunderground v.1.15,2013-05-03 20:53:00,
2013-05-03 16:54:00,78.3,70.1,29.71,WSW,255,4.0,14.0,76,0.00,,,0.00,Wunderground v.1.15,2013-05-03 20:54:00,
2013-05-03 16:56:00,78.4,70.2,29.71,West,264,6.0,14.0,76,0.00,,,0.00,Wunderground v.1.15,2013-05-03 20:56:00,
2013-05-03 16:57:00,78.4,70.2,29.71,West,260,7.0,14.0,76,0.00,,,0.00,Wunderground v.1.15,2013-05-03 20:57:00,
2013-05-03 16:59:00,78.3,70.1,29.71,SW,233,13.0,14.0,76,0.00,,,0.00,Wunderground v.1.15,2013-05-03 20:59:00,
2013-05-03 17:00:00,78.3,69.7,29.71,West,262,9.0,13.0,75,0.00,,,0.00,Wunderground v.1.15,2013-05-03 21:00:00,
2013-05-03 17:01:00,78.2,69.6,29.71,West,280,7.0,13.0,75,0.00,,,0.00,Wunderground v.1.15,2013-05-03 21:01:00,
2013-05-03 17:02:00,78.2,70.0,29.71,WNW,288,6.0,13.0,76,0.00,,,0.00,Wunderground v.1.15,2013-05-03 21:02:00,
2013-05-03 17:04:00,78.2,70.0,29.71,WSW,246,5.0,13.0,76,0.00,,,0.00,Wunderground v.1.15,2013-05-03 21:04:00,
2013-05-03 17:05:00,78.2,70.0,29.71,West,267,7.0,13.0,76,0.00,,,0.00,Wunderground v.1.15,2013-05-03 21:05:00,
2013-05-03 17:06:00,78.1,69.9,29.71,West,269,9.0,13.0,76,0.00,,,0.00,Wunderground v.1.15,2013-05-03 21:06:00,
2013-05-03 17:07:00,78.1,70.3,29.71,West,277,10.0,14.0,77,0.00,,,0.00,Wunderground v.1.15,2013-05-03 21:07:00,
2013-05-03 17:09:00,77.9,70.1,29.71,West,264,9.0,14.0,77,0.00,,,0.00,Wunderground v.1.15,2013-05-03 21:09:00,
2013-05-03 17:10:00,77.8,70.4,29.71,NW,304,7.0,9.0,78,0.00,,,0.00,Wunderground v.1.15,2013-05-03 21:10:00,
2013-05-03 17:11:00,77.7,70.3,29.71,WNW,283,2.0,10.0,78,0.00,,,0.00,Wunderground v.1.15,2013-05-03 21:11:00,
2013-05-03 17:13:00,77.9,70.9,29.71,WSW,242,10.0,11.0,79,0.00,,,0.00,Wunderground v.1.15,2013-05-03 21:13:00,
2013-05-03 17:14:00,78.0,70.6,29.71,NNW,333,7.0,11.0,78,0.00,,,0.00,Wunderground v.1.15,2013-05-03 21:14:00,
2013-05-03 17:15:00,77.9,70.5,29.71,SW,221,5.0,11.0,78,0.00,,,0.00,Wunderground v.1.15,2013-05-03 21:15:00,
2013-05-03 17:16:00,77.9,70.5,29.71,WSW,252,9.0,11.0,78,0.00,,,0.00,Wunderground v.1.15,2013-05-03 21:16:00,
2013-05-03 17:18:00,78.1,71.1,29.71,NW,304,6.0,11.0,79,0.00,,,0.00,Wunderground v.1.15,2013-05-03 21:18:00,
2013-05-03 17:19:00,78.2,70.8,29.71,WNW,290,8.0,11.0,78,0.00,,,0.00,Wunderground v.1.15,2013-05-03 21:19:00,
2013-05-03 17:20:00,78.3,70.9,29.71,NW,305,8.0,11.0,78,0.00,,,0.00,Wunderground v.1.15,2013-05-03 21:20:00,
2013-05-03 17:22:00,78.2,70.8,29.71,West,260,11.0,13.0,78,0.00,,,0.00,Wunderground v.1.15,2013-05-03 21:22:00,
2013-05-03 17:23:00,78.1,71.1,29.71,WNW,288,6.0,13.0,79,0.00,,,0.00,Wunderground v.1.15,2013-05-03 21:23:00,
2013-05-03 17:24:00,77.9,70.5,29.71,WNW,288,7.0,15.0,78,0.00,,,0.00,Wunderground v.1.15,2013-05-03 21:24:00,
2013-05-03 17:25:00,77.9,70.5,29.71,West,278,8.0,15.0,78,0.00,,,0.00,Wunderground v.1.15,2013-05-03 21:25:00,
2013-05-03 17:27:00,77.7,70.7,29.71,NNW,337,8.0,15.0,79,0.00,,,0.00,Wunderground v.1.15,2013-05-03 21:27:00,
2013-05-03 17:28:00,77.7,70.7,29.71,West,271,6.0,15.0,79,0.00,,,0.00,Wunderground v.1.15,2013-05-03 21:28:00,
2013-05-03 17:29:00,77.7,70.7,29.71,WNW,283,5.0,8.0,79,0.00,,,0.00,Wunderground v.1.15,2013-05-03 21:29:00,
2013-05-03 17:30:00,77.7,70.7,29.71,WNW,298,8.0,12.0,79,0.00,,,0.00,Wunderground v.1.15,2013-05-03 21:30:00,
2013-05-03 17:32:00,77.7,71.0,29.71,West,265,5.0,12.0,80,0.00,,,0.00,Wunderground v.1.15,2013-05-03 21:32:00,
2013-05-03 17:33:00,77.8,70.8,29.71,West,270,4.0,14.0,79,0.00,,,0.00,Wunderground v.1.15,2013-05-03 21:33:00,
2013-05-03 17:34:00,77.8,70.8,29.71,WSW,255,3.0,14.0,79,0.00,,,0.00,Wunderground v.1.15,2013-05-03 21:34:00,
2013-05-03 17:35:00,77.8,70.8,29.71,WNW,288,6.0,14.0,79,0.00,,,0.00,Wunderground v.1.15,2013-05-03 21:35:00,
2013-05-03 17:37:00,77.8,70.8,29.71,WNW,301,8.0,14.0,79,0.00,,,0.00,Wunderground v.1.15,2013-05-03 21:37:00,
2013-05-03 17:38:00,77.7,70.7,29.71,WSW,245,5.0,14.0,79,0.00,,,0.00,Wunderground v.1.15,2013-05-03 21:38:00,
2013-05-03 17:40:00,77.9,71.2,29.71,WNW,283,6.0,10.0,80,0.00,,,0.00,Wunderground v.1.15,2013-05-03 21:40:00,
2013-05-03 17:41:00,77.9,71.2,29.71,NW,316,6.0,10.0,80,0.00,,,0.00,Wunderground v.1.15,2013-05-03 21:41:00,
2013-05-03 17:42:00,78.1,71.1,29.71,WNW,288,5.0,12.0,79,0.00,,,0.00,Wunderground v.1.15,2013-05-03 21:42:00,
2013-05-03 17:43:00,78.2,71.5,29.71,WNW,290,4.0,12.0,80,0.00,,,0.00,Wunderground v.1.15,2013-05-03 21:43:00,
2013-05-03 17:45:00,78.3,71.2,29.71,West,270,9.0,14.0,79,0.00,,,0.00,Wunderground v.1.15,2013-05-03 21:45:00,
2013-05-03 17:46:00,78.1,70.7,29.71,NW,304,7.0,14.0,78,0.00,,,0.00,Wunderground v.1.15,2013-05-03 21:46:00,
2013-05-03 17:47:00,78.1,71.1,29.72,WNW,303,5.0,14.0,79,0.00,,,0.00,Wunderground v.1.15,2013-05-03 21:47:00,
2013-05-03 17:49:00,78.2,71.5,29.72,West,264,8.0,14.0,80,0.00,,,0.00,Wunderground v.1.15,2013-05-03 21:49:00,
2013-05-03 17:50:00,78.2,71.2,29.72,NW,312,6.0,7.0,79,0.00,,,0.00,Wunderground v.1.15,2013-05-03 21:50:00,
2013-05-03 17:52:00,78.1,70.7,29.72,WNW,288,6.0,16.0,78,0.00,,,0.00,Wunderground v.1.15,2013-05-03 21:52:00,
2013-05-03 17:54:00,77.9,70.9,29.72,NW,307,5.0,16.0,79,0.00,,,0.00,Wunderground v.1.15,2013-05-03 21:54:00,
2013-05-03 17:55:00,77.9,71.2,29.72,West,280,8.0,16.0,80,0.00,,,0.00,Wunderground v.1.15,2013-05-03 21:55:00,
2013-05-03 17:56:00,77.9,70.9,29.72,West,270,4.0,16.0,79,0.00,,,0.00,Wunderground v.1.15,2013-05-03 21:56:00,
2013-05-03 17:57:00,78.0,71.0,29.72,WNW,302,11.0,16.0,79,0.00,,,0.00,Wunderground v.1.15,2013-05-03 21:57:00,
2013-05-03 17:58:00,77.9,70.9,29.71,NW,309,3.0,16.0,79,0.00,,,0.00,Wunderground v.1.15,2013-05-03 21:58:00,
2013-05-03 17:59:00,78.0,71.0,29.71,WNW,283,9.0,16.0,79,0.00,,,0.00,Wunderground v.1.15,2013-05-03 21:59:00,
2013-05-03 18:00:00,78.0,71.0,29.71,WSW,257,10.0,10.0,79,0.00,,,0.00,Wunderground v.1.15,2013-05-03 22:00:00,
2013-05-03 18:01:00,78.0,70.6,29.71,WNW,291,8.0,13.0,78,0.00,,,0.00,Wunderground v.1.15,2013-05-03 22:01:00,
2013-05-03 18:02:00,78.0,70.6,29.71,West,266,9.0,13.0,78,0.00,,,0.00,Wunderground v.1.15,2013-05-03 22:02:00,
2013-05-03 18:03:00,77.9,70.1,29.72,West,277,6.0,13.0,77,0.00,,,0.00,Wunderground v.1.15,2013-05-03 22:03:00,
2013-05-03 18:04:00,77.9,70.1,29.72,West,266,7.0,16.0,77,0.00,,,0.00,Wunderground v.1.15,2013-05-03 22:04:00,
2013-05-03 18:06:00,77.7,69.9,29.72,WNW,297,5.0,16.0,77,0.00,,,0.00,Wunderground v.1.15,2013-05-03 22:06:00,
2013-05-03 18:07:00,77.6,70.2,29.72,West,273,4.0,16.0,78,0.00,,,0.00,Wunderground v.1.15,2013-05-03 22:07:00,
2013-05-03 18:09:00,77.6,70.2,29.72,West,280,3.0,16.0,78,0.00,,,0.00,Wunderground v.1.15,2013-05-03 22:09:00,
2013-05-03 18:11:00,77.4,70.0,29.71,WNW,297,5.0,11.0,78,0.00,,,0.00,Wunderground v.1.15,2013-05-03 22:11:00,
2013-05-03 18:12:00,77.4,70.0,29.72,NW,309,9.0,13.0,78,0.00,,,0.00,Wunderground v.1.15,2013-05-03 22:12:00,
2013-05-03 18:14:00,77.2,70.2,29.71,NNW,330,6.0,13.0,79,0.00,,,0.00,Wunderground v.1.15,2013-05-03 22:14:00,
2013-05-03 18:15:00,77.2,70.5,29.72,WNW,294,8.0,13.0,80,0.00,,,0.00,Wunderground v.1.15,2013-05-03 22:15:00,
2013-05-03 18:16:00,77.1,70.5,29.72,WNW,283,7.0,13.0,80,0.00,,,0.00,Wunderground v.1.15,2013-05-03 22:16:00,
2013-05-03 18:17:00,77.1,70.1,29.72,WNW,295,9.0,13.0,79,0.00,,,0.00,Wunderground v.1.15,2013-05-03 22:17:00,
2013-05-03 18:19:00,77.0,70.4,29.72,West,266,4.0,14.0,80,0.00,,,0.00,Wunderground v.1.15,2013-05-03 22:19:00,
2013-05-03 18:20:00,77.0,70.4,29.72,WNW,287,9.0,13.0,80,0.00,,,0.00,Wunderground v.1.15,2013-05-03 22:20:00,
2013-05-03 18:21:00,77.0,70.0,29.72,WNW,290,4.0,13.0,79,0.00,,,0.00,Wunderground v.1.15,2013-05-03 22:21:00,
2013-05-03 18:22:00,77.0,70.4,29.72,West,270,1.0,13.0,80,0.00,,,0.00,Wunderground v.1.15,2013-05-03 22:22:00,
2013-05-03 18:24:00,77.1,70.1,29.72,North,354,7.0,14.0,79,0.00,,,0.00,Wunderground v.1.15,2013-05-03 22:24:00,
2013-05-03 18:25:00,77.0,70.0,29.71,WNW,298,8.0,14.0,79,0.00,,,0.00,Wunderground v.1.15,2013-05-03 22:25:00,
2013-05-03 18:26:00,77.0,70.0,29.71,WNW,287,11.0,14.0,79,0.00,,,0.00,Wunderground v.1.15,2013-05-03 22:26:00,
2013-05-03 18:27:00,77.0,70.0,29.71,NW,309,7.0,14.0,79,0.00,,,0.00,Wunderground v.1.15,2013-05-03 22:27:00,
2013-05-03 18:29:00,77.0,70.0,29.71,WNW,295,6.0,14.0,79,0.00,,,0.00,Wunderground v.1.15,2013-05-03 22:29:00,
2013-05-03 18:30:00,76.9,69.9,29.71,WNW,297,4.0,13.0,79,0.00,,,0.00,Wunderground v.1.15,2013-05-03 22:30:00,
2013-05-03 18:31:00,76.8,69.8,29.71,West,279,8.0,13.0,79,0.00,,,0.00,Wunderground v.1.15,2013-05-03 22:31:00,
2013-05-03 18:32:00,76.8,69.4,29.71,West,263,4.0,13.0,78,0.00,,,0.00,Wunderground v.1.15,2013-05-03 22:32:00,
2013-05-03 18:35:00,76.7,69.7,29.71,WNW,293,4.0,13.0,79,0.00,,,0.00,Wunderground v.1.15,2013-05-03 22:35:00,
2013-05-03 18:36:00,76.7,69.7,29.71,WNW,289,6.0,13.0,79,0.00,,,0.00,Wunderground v.1.15,2013-05-03 22:36:00,
2013-05-03 18:37:00,76.8,69.8,29.71,WSW,257,7.0,13.0,79,0.00,,,0.00,Wunderground v.1.15,2013-05-03 22:37:00,
2013-05-03 18:40:00,77.0,70.0,29.71,WNW,284,9.0,9.0,79,0.00,,,0.00,Wunderground v.1.15,2013-05-03 22:40:00,
2013-05-03 18:41:00,77.0,70.0,29.72,West,281,4.0,10.0,79,0.00,,,0.00,Wunderground v.1.15,2013-05-03 22:41:00,
2013-05-03 18:42:00,77.2,70.5,29.71,WSW,249,2.0,10.0,80,0.00,,,0.00,Wunderground v.1.15,2013-05-03 22:42:00,
2013-05-03 18:45:00,77.3,69.5,29.72,NNW,346,11.0,13.0,77,0.00,,,0.00,Wunderground v.1.15,2013-05-03 22:45:00,
2013-05-03 18:46:00,77.1,69.3,29.72,NNW,330,4.0,13.0,77,0.00,,,0.00,Wunderground v.1.15,2013-05-03 22:46:00,
2013-05-03 18:47:00,77.0,69.2,29.72,NW,319,5.0,13.0,77,0.00,,,0.00,Wunderground v.1.15,2013-05-03 22:47:00,
2013-05-03 18:48:00,77.0,69.2,29.72,NW,309,4.0,13.0,77,0.00,,,0.00,Wunderground v.1.15,2013-05-03 22:48:00,
2013-05-03 18:50:00,76.7,69.3,29.72,WNW,285,7.0,10.0,78,0.00,,,0.00,Wunderground v.1.15,2013-05-03 22:50:00,
2013-05-03 18:52:00,76.7,69.3,29.72,NW,305,9.0,12.0,78,0.00,,,0.00,Wunderground v.1.15,2013-05-03 22:52:00,
2013-05-03 18:53:00,76.6,69.2,29.72,WNW,298,10.0,12.0,78,0.00,,,0.00,Wunderground v.1.15,2013-05-03 22:53:00,
2013-05-03 18:55:00,76.5,69.5,29.72,WNW,297,3.0,12.0,79,0.00,,,0.00,Wunderground v.1.15,2013-05-03 22:55:00,
2013-05-03 18:57:00,76.5,69.9,29.72,West,276,6.0,12.0,80,0.00,,,0.00,Wunderground v.1.15,2013-05-03 22:57:00,
2013-05-03 18:58:00,76.6,69.6,29.72,North,349,6.0,13.0,79,0.00,,,0.00,Wunderground v.1.15,2013-05-03 22:58:00,
2013-05-03 19:01:00,76.4,69.4,29.71,NW,319,8.0,12.0,79,0.00,,,0.00,Wunderground v.1.15,2013-05-03 23:01:00,
2013-05-03 19:02:00,76.4,69.4,29.72,WNW,294,6.0,12.0,79,0.00,,,0.00,Wunderground v.1.15,2013-05-03 23:02:00,
2013-05-03 19:03:00,76.4,69.8,29.71,WSW,257,9.0,12.0,80,0.00,,,0.00,Wunderground v.1.15,2013-05-03 23:03:00,
2013-05-03 19:06:00,76.6,70.0,29.71,WNW,302,6.0,12.0,80,0.00,,,0.00,Wunderground v.1.15,2013-05-03 23:06:00,
2013-05-03 19:07:00,76.7,70.1,29.71,NNE,12,7.0,12.0,80,0.00,,,0.00,Wunderground v.1.15,2013-05-03 23:07:00,
2013-05-03 19:08:00,76.7,70.1,29.71,NW,308,6.0,12.0,80,0.00,,,0.00,Wunderground v.1.15,2013-05-03 23:08:00,
2013-05-03 19:09:00,76.7,70.1,29.71,West,273,7.0,12.0,80,0.00,,,0.00,Wunderground v.1.15,2013-05-03 23:09:00,
2013-05-03 19:11:00,76.6,69.2,29.71,NNW,331,12.0,13.0,78,0.00,,,0.00,Wunderground v.1.15,2013-05-03 23:11:00,
2013-05-03 19:12:00,76.5,68.7,29.71,WNW,292,2.0,13.0,77,0.00,,,0.00,Wunderground v.1.15,2013-05-03 23:12:00,
2013-05-03 19:13:00,76.5,68.7,29.71,NNW,337,6.0,13.0,77,0.00,,,0.00,Wunderground v.1.15,2013-05-03 23:13:00,
2013-05-03 19:14:00,76.4,69.0,29.71,NW,309,6.0,13.0,78,0.00,,,0.00,Wunderground v.1.15,2013-05-03 23:14:00,
2013-05-03 19:16:00,76.4,69.0,29.71,WNW,295,5.0,13.0,78,0.00,,,0.00,Wunderground v.1.15,2013-05-03 23:16:00,
2013-05-03 19:17:00,76.5,69.1,29.72,WNW,297,7.0,13.0,78,0.00,,,0.00,Wunderground v.1.15,2013-05-03 23:17:00,
2013-05-03 19:18:00,76.5,69.1,29.72,WNW,298,5.0,13.0,78,0.00,,,0.00,Wunderground v.1.15,2013-05-03 23:18:00,
2013-05-03 19:19:00,76.4,69.4,29.72,WSW,255,4.0,13.0,79,0.00,,,0.00,Wunderground v.1.15,2013-05-03 23:19:00,
2013-05-03 19:20:00,76.4,69.4,29.71,NW,309,6.0,7.0,79,0.00,,,0.00,Wunderground v.1.15,2013-05-03 23:20:00,
2013-05-03 19:21:00,76.4,69.4,29.71,NW,319,4.0,8.0,79,0.00,,,0.00,Wunderground v.1.15,2013-05-03 23:21:00,
2013-05-03 19:23:00,76.4,69.8,29.71,WSW,242,4.0,8.0,80,0.00,,,0.00,Wunderground v.1.15,2013-05-03 23:23:00,
2013-05-03 19:24:00,76.5,69.9,29.71,NW,315,6.0,8.0,80,0.00,,,0.00,Wunderground v.1.15,2013-05-03 23:24:00,
2013-05-03 19:25:00,76.5,69.9,29.71,WSW,257,10.0,12.0,80,0.00,,,0.00,Wunderground v.1.15,2013-05-03 23:25:00,
2013-05-03 19:26:00,76.4,69.4,29.71,NW,312,8.0,13.0,79,0.00,,,0.00,Wunderground v.1.15,2013-05-03 23:26:00,
2013-05-03 19:28:00,76.3,69.3,29.71,WNW,300,7.0,13.0,79,0.00,,,0.00,Wunderground v.1.15,2013-05-03 23:28:00,
2013-05-03 19:29:00,76.2,69.2,29.71,NW,319,10.0,14.0,79,0.00,,,0.00,Wunderground v.1.15,2013-05-03 23:29:00,
2013-05-03 19:30:00,76.1,69.1,29.71,NW,304,12.0,12.0,79,0.00,,,0.00,Wunderground v.1.15,2013-05-03 23:30:00,
2013-05-03 19:32:00,76.0,69.4,29.72,NW,314,4.0,13.0,80,0.00,,,0.00,Wunderground v.1.15,2013-05-03 23:32:00,
2013-05-03 19:33:00,76.0,69.4,29.72,NW,311,3.0,13.0,80,0.00,,,0.00,Wunderground v.1.15,2013-05-03 23:33:00,
2013-05-03 19:34:00,76.0,69.4,29.72,WNW,288,5.0,13.0,80,0.00,,,0.00,Wunderground v.1.15,2013-05-03 23:34:00,
2013-05-03 19:36:00,76.1,69.5,29.72,NW,309,4.0,13.0,80,0.00,,,0.00,Wunderground v.1.15,2013-05-03 23:36:00,
2013-05-03 19:37:00,76.2,69.6,29.72,WNW,293,5.0,13.0,80,0.00,,,0.00,Wunderground v.1.15,2013-05-03 23:37:00,
2013-05-03 19:38:00,76.2,69.6,29.72,WSW,253,2.0,13.0,80,0.00,,,0.00,Wunderground v.1.15,2013-05-03 23:38:00,
2013-05-03 19:39:00,76.2,69.6,29.72,West,276,2.0,13.0,80,0.00,,,0.00,Wunderground v.1.15,2013-05-03 23:39:00,
2013-05-03 19:41:00,76.2,69.9,29.72,NNW,340,11.0,11.0,81,0.00,,,0.00,Wunderground v.1.15,2013-05-03 23:41:00,
2013-05-03 19:43:00,76.0,69.4,29.72,North,353,7.0,15.0,80,0.00,,,0.00,Wunderground v.1.15,2013-05-03 23:43:00,
2013-05-03 19:44:00,75.9,69.3,29.72,NW,321,6.0,15.0,80,0.00,,,0.00,Wunderground v.1.15,2013-05-03 23:44:00,
2013-05-03 19:45:00,75.9,69.3,29.72,NNW,331,11.0,15.0,80,0.00,,,0.00,Wunderground v.1.15,2013-05-03 23:45:00,
2013-05-03 19:46:00,75.8,69.6,29.72,NW,315,6.0,15.0,81,0.00,,,0.00,Wunderground v.1.15,2013-05-03 23:46:00,
2013-05-03 19:48:00,75.7,69.5,29.72,NW,319,3.0,15.0,81,0.00,,,0.00,Wunderground v.1.15,2013-05-03 23:48:00,
2013-05-03 19:49:00,75.6,69.4,29.72,NW,309,6.0,15.0,81,0.00,,,0.00,Wunderground v.1.15,2013-05-03 23:49:00,
2013-05-03 19:50:00,75.6,69.4,29.72,NNW,337,4.0,7.0,81,0.00,,,0.00,Wunderground v.1.15,2013-05-03 23:50:00,
2013-05-03 19:52:00,75.6,69.4,29.72,West,276,3.0,7.0,81,0.00,,,0.00,Wunderground v.1.15,2013-05-03 23:52:00,
2013-05-03 19:53:00,75.5,69.3,29.72,WNW,294,6.0,8.0,81,0.00,,,0.00,Wunderground v.1.15,2013-05-03 23:53:00,
2013-05-03 19:54:00,75.5,69.3,29.72,WNW,302,8.0,9.0,81,0.00,,,0.00,Wunderground v.1.15,2013-05-03 23:54:00,
2013-05-03 19:55:00,75.5,69.3,29.72,WNW,283,5.0,9.0,81,0.00,,,0.00,Wunderground v.1.15,2013-05-03 23:55:00,
2013-05-03 19:57:00,75.4,69.5,29.72,NW,318,5.0,9.0,82,0.00,,,0.00,Wunderground v.1.15,2013-05-03 23:57:00,
2013-05-03 19:59:00,75.3,69.1,29.72,NNW,347,4.0,12.0,81,0.00,,,0.00,Wunderground v.1.15,2013-05-03 23:59:00,
2013-05-03 20:00:00,75.2,69.0,29.72,NNE,20,5.0,7.0,81,0.00,,,0.00,Wunderground v.1.15,2013-05-04 00:00:00,
2013-05-03 20:02:00,75.1,68.9,29.72,NW,304,7.0,10.0,81,0.00,,,0.00,Wunderground v.1.15,2013-05-04 00:02:00,
2013-05-03 20:04:00,75.0,68.8,29.72,NW,315,2.0,10.0,81,0.00,,,0.00,Wunderground v.1.15,2013-05-04 00:04:00,
2013-05-03 20:05:00,75.0,68.8,29.72,WNW,297,7.0,10.0,81,0.00,,,0.00,Wunderground v.1.15,2013-05-04 00:05:00,
2013-05-03 20:07:00,74.9,68.7,29.72,NNE,25,3.0,10.0,81,0.00,,,0.00,Wunderground v.1.15,2013-05-04 00:07:00,
2013-05-03 20:09:00,74.8,68.6,29.72,NW,319,5.0,8.0,81,0.00,,,0.00,Wunderground v.1.15,2013-05-04 00:09:00,
2013-05-03 20:10:00,74.8,68.6,29.72,WNW,302,5.0,8.0,81,0.00,,,0.00,Wunderground v.1.15,2013-05-04 00:10:00,
2013-05-03 20:11:00,74.8,68.6,29.72,WNW,290,5.0,11.0,81,0.00,,,0.00,Wunderground v.1.15,2013-05-04 00:11:00,
2013-05-03 20:12:00,74.8,68.6,29.72,West,271,7.0,14.0,81,0.00,,,0.00,Wunderground v.1.15,2013-05-04 00:12:00,
2013-05-03 20:15:00,74.7,68.8,29.72,WNW,302,3.0,14.0,82,0.00,,,0.00,Wunderground v.1.15,2013-05-04 00:15:00,
2013-05-03 20:16:00,74.6,68.7,29.72,WNW,297,5.0,14.0,82,0.00,,,0.00,Wunderground v.1.15,2013-05-04 00:16:00,
2013-05-03 20:17:00,74.6,68.4,29.72,NW,314,4.0,14.0,81,0.00,,,0.00,Wunderground v.1.15,2013-05-04 00:17:00,
2013-05-03 20:20:00,74.6,68.7,29.72,NNW,334,5.0,7.0,82,0.00,,,0.00,Wunderground v.1.15,2013-05-04 00:20:00,
2013-05-03 20:21:00,74.6,68.4,29.72,WNW,285,5.0,10.0,81,0.00,,,0.00,Wunderground v.1.15,2013-05-04 00:21:00,
2013-05-03 20:22:00,74.5,68.3,29.72,NW,307,7.0,10.0,81,0.00,,,0.00,Wunderground v.1.15,2013-05-04 00:22:00,
2013-05-03 20:25:00,74.5,67.9,29.72,NW,314,6.0,11.0,80,0.00,,,0.00,Wunderground v.1.15,2013-05-04 00:25:00,
2013-05-03 20:26:00,74.5,67.9,29.72,NW,316,8.0,11.0,80,0.00,,,0.00,Wunderground v.1.15,2013-05-04 00:26:00,
2013-05-03 20:27:00,74.5,67.9,29.72,NW,314,4.0,11.0,80,0.00,,,0.00,Wunderground v.1.15,2013-05-04 00:27:00,
2013-05-03 20:30:00,74.5,67.9,29.72,NW,326,11.0,11.0,80,0.00,,,0.00,Wunderground v.1.15,2013-05-04 00:30:00,
2013-05-03 20:31:00,74.5,67.9,29.72,WNW,302,5.0,12.0,80,0.00,,,0.00,Wunderground v.1.15,2013-05-04 00:31:00,
2013-05-03 20:32:00,74.5,67.9,29.72,NW,304,11.0,12.0,80,0.00,,,0.00,Wunderground v.1.15,2013-05-04 00:32:00,
2013-05-03 20:35:00,74.5,68.3,29.72,NW,314,7.0,12.0,81,0.00,,,0.00,Wunderground v.1.15,2013-05-04 00:35:00,
2013-05-03 20:36:00,74.5,68.3,29.72,WNW,301,8.0,12.0,81,0.00,,,0.00,Wunderground v.1.15,2013-05-04 00:36:00,
2013-05-03 20:37:00,74.5,68.3,29.72,NW,304,1.0,12.0,81,0.00,,,0.00,Wunderground v.1.15,2013-05-04 00:37:00,
2013-05-03 20:38:00,74.4,68.2,29.72,WNW,285,3.0,12.0,81,0.00,,,0.00,Wunderground v.1.15,2013-05-04 00:38:00,
2013-05-03 20:40:00,74.4,68.2,29.72,NW,307,4.0,6.0,81,0.00,,,0.00,Wunderground v.1.15,2013-05-04 00:40:00,
2013-05-03 20:41:00,74.4,68.2,29.72,NW,313,3.0,7.0,81,0.00,,,0.00,Wunderground v.1.15,2013-05-04 00:41:00,
2013-05-03 20:43:00,74.4,68.2,29.72,West,280,7.0,8.0,81,0.00,,,0.00,Wunderground v.1.15,2013-05-04 00:43:00,
2013-05-03 20:45:00,74.4,68.5,29.72,WNW,298,6.0,9.0,82,0.00,,,0.00,Wunderground v.1.15,2013-05-04 00:45:00,
2013-05-03 20:46:00,74.4,68.5,29.72,WNW,288,5.0,9.0,82,0.00,,,0.00,Wunderground v.1.15,2013-05-04 00:46:00,
2013-05-03 20:48:00,74.4,68.5,29.72,WNW,288,2.0,9.0,82,0.00,,,0.00,Wunderground v.1.15,2013-05-04 00:48:00,
2013-05-03 20:50:00,74.3,68.4,29.72,NNW,344,1.0,5.0,82,0.00,,,0.00,Wunderground v.1.15,2013-05-04 00:50:00,
2013-05-03 20:51:00,74.3,68.4,29.73,WNW,295,6.0,8.0,82,0.00,,,0.00,Wunderground v.1.15,2013-05-04 00:51:00,
2013-05-03 20:52:00,74.3,68.4,29.73,WNW,294,6.0,8.0,82,0.00,,,0.00,Wunderground v.1.15,2013-05-04 00:52:00,
2013-05-03 20:53:00,74.3,68.4,29.72,WNW,289,9.0,9.0,82,0.00,,,0.00,Wunderground v.1.15,2013-05-04 00:53:00,
2013-05-03 20:54:00,74.3,68.4,29.72,NW,316,4.0,9.0,82,0.00,,,0.00,Wunderground v.1.15,2013-05-04 00:54:00,
2013-05-03 20:55:00,74.3,68.4,29.73,WNW,287,9.0,9.0,82,0.00,,,0.00,Wunderground v.1.15,2013-05-04 00:55:00,
2013-05-03 20:56:00,74.2,68.3,29.72,WNW,287,7.0,11.0,82,0.00,,,0.00,Wunderground v.1.15,2013-05-04 00:56:00,
2013-05-03 20:57:00,74.2,68.3,29.72,WNW,298,6.0,11.0,82,0.00,,,0.00,Wunderground v.1.15,2013-05-04 00:57:00,
2013-05-03 20:58:00,74.2,68.0,29.72,NW,315,5.0,11.0,81,0.00,,,0.00,Wunderground v.1.15,2013-05-04 00:58:00,
2013-05-03 20:59:00,74.2,68.0,29.73,North,7,9.0,11.0,81,0.00,,,0.00,Wunderground v.1.15,2013-05-04 00:59:00,
2013-05-03 21:00:00,74.2,68.0,29.73,NW,309,9.0,9.0,81,0.00,,,0.00,Wunderground v.1.15,2013-05-04 01:00:00,
2013-05-03 21:02:00,74.2,68.0,29.73,WNW,302,6.0,10.0,81,0.00,,,0.00,Wunderground v.1.15,2013-05-04 01:02:00,
2013-05-03 21:03:00,74.2,68.0,29.73,NW,321,6.0,10.0,81,0.00,,,0.00,Wunderground v.1.15,2013-05-04 01:03:00,
2013-05-03 21:05:00,74.2,68.0,29.73,NW,326,7.0,10.0,81,0.00,,,0.00,Wunderground v.1.15,2013-05-04 01:05:00,
2013-05-03 21:06:00,74.2,68.0,29.73,WNW,291,6.0,10.0,81,0.00,,,0.00,Wunderground v.1.15,2013-05-04 01:06:00,
2013-05-03 21:07:00,74.2,68.0,29.73,WNW,288,7.0,10.0,81,0.00,,,0.00,Wunderground v.1.15,2013-05-04 01:07:00,
2013-05-03 21:09:00,74.2,68.0,29.73,NW,305,6.0,10.0,81,0.00,,,0.00,Wunderground v.1.15,2013-05-04 01:09:00,
2013-05-03 21:10:00,74.2,68.0,29.73,West,262,2.0,5.0,81,0.00,,,0.00,Wunderground v.1.15,2013-05-04 01:10:00,
2013-05-03 21:11:00,74.2,68.0,29.73,NW,319,3.0,6.0,81,0.00,,,0.00,Wunderground v.1.15,2013-05-04 01:11:00,
2013-05-03 21:12:00,74.2,68.0,29.73,NW,319,4.0,6.0,81,0.00,,,0.00,Wunderground v.1.15,2013-05-04 01:12:00,
2013-05-03 21:14:00,74.2,68.3,29.73,NW,319,1.0,6.0,82,0.00,,,0.00,Wunderground v.1.15,2013-05-04 01:14:00,
2013-05-03 21:15:00,74.2,68.3,29.73,NW,304,3.0,6.0,82,0.00,,,0.00,Wunderground v.1.15,2013-05-04 01:15:00,
2013-05-03 21:16:00,74.2,68.3,29.73,WNW,301,4.0,6.0,82,0.00,,,0.00,Wunderground v.1.15,2013-05-04 01:16:00,
2013-05-03 21:17:00,74.2,68.3,29.73,NNW,337,4.0,6.0,82,0.00,,,0.00,Wunderground v.1.15,2013-05-04 01:17:00,
2013-05-03 21:19:00,74.2,68.3,29.73,NW,319,3.0,7.0,82,0.00,,,0.00,Wunderground v.1.15,2013-05-04 01:19:00,
2013-05-03 21:21:00,74.1,68.3,29.73,NW,305,5.0,5.0,82,0.00,,,0.00,Wunderground v.1.15,2013-05-04 01:21:00,
2013-05-03 21:22:00,74.1,68.3,29.73,NW,312,4.0,5.0,82,0.00,,,0.00,Wunderground v.1.15,2013-05-04 01:22:00,
2013-05-03 21:23:00,74.1,68.3,29.73,WNW,289,4.0,6.0,82,0.00,,,0.00,Wunderground v.1.15,2013-05-04 01:23:00,
2013-05-03 21:25:00,74.1,68.3,29.74,WNW,302,2.0,6.0,82,0.00,,,0.00,Wunderground v.1.15,2013-05-04 01:25:00,
2013-05-03 21:26:00,74.1,68.3,29.73,West,280,2.0,6.0,82,0.00,,,0.00,Wunderground v.1.15,2013-05-04 01:26:00,
2013-05-03 21:27:00,74.1,68.3,29.73,WNW,282,1.0,6.0,82,0.00,,,0.00,Wunderground v.1.15,2013-05-04 01:27:00,
2013-05-03 21:28:00,74.1,68.3,29.73,WNW,301,7.0,8.0,82,0.00,,,0.00,Wunderground v.1.15,2013-05-04 01:28:00,
2013-05-03 21:30:00,74.1,68.3,29.73,WNW,303,4.0,4.0,82,0.00,,,0.00,Wunderground v.1.15,2013-05-04 01:30:00,
2013-05-03 21:31:00,74.1,68.3,29.73,NNW,337,3.0,4.0,82,0.00,,,0.00,Wunderground v.1.15,2013-05-04 01:31:00,
2013-05-03 21:32:00,74.1,68.3,29.73,WNW,302,4.0,4.0,82,0.00,,,0.00,Wunderground v.1.15,2013-05-04 01:32:00,
2013-05-03 21:33:00,74.1,68.3,29.73,WNW,285,2.0,4.0,82,0.00,,,0.00,Wunderground v.1.15,2013-05-04 01:33:00,
2013-05-03 21:34:00,74.0,68.2,29.73,NNW,330,3.0,5.0,82,0.00,,,0.00,Wunderground v.1.15,2013-05-04 01:34:00,
2013-05-03 21:35:00,74.0,68.2,29.73,West,278,1.0,5.0,82,0.00,,,0.00,Wunderground v.1.15,2013-05-04 01:35:00,
2013-05-03 21:37:00,74.0,68.2,29.73,West,277,3.0,5.0,82,0.00,,,0.00,Wunderground v.1.15,2013-05-04 01:37:00,
2013-05-03 21:38:00,74.0,68.2,29.73,NNW,328,4.0,5.0,82,0.00,,,0.00,Wunderground v.1.15,2013-05-04 01:38:00,
2013-05-03 21:39:00,74.0,68.5,29.73,West,273,1.0,5.0,83,0.00,,,0.00,Wunderground v.1.15,2013-05-04 01:39:00,
2013-05-03 21:40:00,73.9,68.4,29.73,NW,304,5.0,7.0,83,0.00,,,0.00,Wunderground v.1.15,2013-05-04 01:40:00,
2013-05-03 21:42:00,73.9,68.4,29.73,NW,307,2.0,7.0,83,0.00,,,0.00,Wunderground v.1.15,2013-05-04 01:42:00,
2013-05-03 21:43:00,73.9,68.4,29.73,NW,314,2.0,7.0,83,0.00,,,0.00,Wunderground v.1.15,2013-05-04 01:43:00,
2013-05-03 21:44:00,73.9,68.4,29.73,WNW,301,2.0,7.0,83,0.00,,,0.00,Wunderground v.1.15,2013-05-04 01:44:00,
2013-05-03 21:45:00,73.9,68.4,29.73,WNW,285,3.0,7.0,83,0.00,,,0.00,Wunderground v.1.15,2013-05-04 01:45:00,
2013-05-03 21:47:00,73.8,68.3,29.73,WNW,283,2.0,7.0,83,0.00,,,0.00,Wunderground v.1.15,2013-05-04 01:47:00,
2013-05-03 21:48:00,73.8,68.3,29.73,WNW,288,2.0,7.0,83,0.00,,,0.00,Wunderground v.1.15,2013-05-04 01:48:00,
2013-05-03 21:49:00,73.8,68.7,29.73,West,281,3.0,7.0,84,0.00,,,0.00,Wunderground v.1.15,2013-05-04 01:49:00,
2013-05-03 21:51:00,73.7,68.6,29.73,NNW,342,1.0,2.0,84,0.00,,,0.00,Wunderground v.1.15,2013-05-04 01:51:00,
2013-05-03 21:52:00,73.7,68.6,29.73,West,277,1.0,5.0,84,0.00,,,0.00,Wunderground v.1.15,2013-05-04 01:52:00,
2013-05-03 21:53:00,73.7,68.6,29.73,WNW,283,2.0,5.0,84,0.00,,,0.00,Wunderground v.1.15,2013-05-04 01:53:00,
2013-05-03 21:54:00,73.7,68.6,29.73,WNW,301,4.0,5.0,84,0.00,,,0.00,Wunderground v.1.15,2013-05-04 01:54:00,
2013-05-03 21:56:00,73.7,68.6,29.73,WSW,255,3.0,5.0,84,0.00,,,0.00,Wunderground v.1.15,2013-05-04 01:56:00,
2013-05-03 21:57:00,73.7,68.6,29.73,NW,305,2.0,5.0,84,0.00,,,0.00,Wunderground v.1.15,2013-05-04 01:57:00,
2013-05-03 21:58:00,73.7,68.6,29.73,WSW,245,1.0,5.0,84,0.00,,,0.00,Wunderground v.1.15,2013-05-04 01:58:00,
2013-05-03 21:59:00,73.7,68.6,29.73,WNW,288,4.0,5.0,84,0.00,,,0.00,Wunderground v.1.15,2013-05-04 01:59:00,
2013-05-03 22:01:00,73.7,68.6,29.73,WNW,284,3.0,3.0,84,0.00,,,0.00,Wunderground v.1.15,2013-05-04 02:01:00,
2013-05-03 22:02:00,73.7,68.6,29.73,West,263,3.0,4.0,84,0.00,,,0.00,Wunderground v.1.15,2013-05-04 02:02:00,
2013-05-03 22:04:00,73.6,68.5,29.73,WNW,294,2.0,4.0,84,0.00,,,0.00,Wunderground v.1.15,2013-05-04 02:04:00,
2013-05-03 22:05:00,73.6,68.5,29.74,West,278,4.0,4.0,84,0.00,,,0.00,Wunderground v.1.15,2013-05-04 02:05:00,
2013-05-03 22:06:00,73.6,68.5,29.73,NW,305,2.0,4.0,84,0.00,,,0.00,Wunderground v.1.15,2013-05-04 02:06:00,
2013-05-03 22:07:00,73.6,68.5,29.74,WNW,285,4.0,5.0,84,0.00,,,0.00,Wunderground v.1.15,2013-05-04 02:07:00,
2013-05-03 22:09:00,73.6,68.5,29.74,WNW,283,2.0,5.0,84,0.00,,,0.00,Wunderground v.1.15,2013-05-04 02:09:00,
2013-05-03 22:10:00,73.6,68.5,29.74,WNW,294,3.0,5.0,84,0.00,,,0.00,Wunderground v.1.15,2013-05-04 02:10:00,
2013-05-03 22:11:00,73.6,68.5,29.74,West,281,3.0,5.0,84,0.00,,,0.00,Wunderground v.1.15,2013-05-04 02:11:00,
2013-05-03 22:12:00,73.6,68.5,29.74,West,280,1.0,5.0,84,0.00,,,0.00,Wunderground v.1.15,2013-05-04 02:12:00,
2013-05-03 22:14:00,73.6,68.5,29.74,West,264,2.0,7.0,84,0.00,,,0.00,Wunderground v.1.15,2013-05-04 02:14:00,
2013-05-03 22:15:00,73.6,68.5,29.74,WNW,293,4.0,7.0,84,0.00,,,0.00,Wunderground v.1.15,2013-05-04 02:15:00,
2013-05-03 22:16:00,73.6,68.5,29.74,West,259,3.0,7.0,84,0.00,,,0.00,Wunderground v.1.15,2013-05-04 02:16:00,
2013-05-03 22:17:00,73.6,68.5,29.74,WNW,285,2.0,7.0,84,0.00,,,0.00,Wunderground v.1.15,2013-05-04 02:17:00,
2013-05-03 22:19:00,73.6,68.5,29.74,WNW,297,5.0,7.0,84,0.00,,,0.00,Wunderground v.1.15,2013-05-04 02:19:00,
2013-05-03 22:21:00,73.6,68.5,29.75,WNW,294,3.0,7.0,84,0.00,,,0.00,Wunderground v.1.15,2013-05-04 02:21:00,
2013-05-03 22:22:00,73.6,68.5,29.75,West,280,4.0,7.0,84,0.00,,,0.00,Wunderground v.1.15,2013-05-04 02:22:00,
2013-05-03 22:24:00,73.7,68.6,29.75,West,274,3.0,7.0,84,0.00,,,0.00,Wunderground v.1.15,2013-05-04 02:24:00,
2013-05-03 22:26:00,73.7,68.6,29.75,WNW,282,5.0,7.0,84,0.00,,,0.00,Wunderground v.1.15,2013-05-04 02:26:00,
2013-05-03 22:27:00,73.7,68.6,29.75,NW,309,5.0,10.0,84,0.00,,,0.00,Wunderground v.1.15,2013-05-04 02:27:00,
2013-05-03 22:30:00,73.7,68.6,29.75,WNW,298,3.0,5.0,84,0.00,,,0.00,Wunderground v.1.15,2013-05-04 02:30:00,
2013-05-03 22:31:00,73.7,68.9,29.75,SSW,212,2.0,8.0,85,0.00,,,0.00,Wunderground v.1.15,2013-05-04 02:31:00,
2013-05-03 22:33:00,73.7,68.9,29.75,NW,323,4.0,8.0,85,0.00,,,0.00,Wunderground v.1.15,2013-05-04 02:33:00,
2013-05-03 22:35:00,73.8,69.0,29.75,WSW,256,3.0,8.0,85,0.00,,,0.00,Wunderground v.1.15,2013-05-04 02:35:00,
2013-05-03 22:36:00,73.8,69.0,29.75,NW,305,4.0,8.0,85,0.00,,,0.00,Wunderground v.1.15,2013-05-04 02:36:00,
2013-05-03 22:37:00,73.8,69.0,29.75,West,266,4.0,8.0,85,0.00,,,0.00,Wunderground v.1.15,2013-05-04 02:37:00,
2013-05-03 22:38:00,73.9,69.1,29.75,WNW,294,4.0,8.0,85,0.00,,,0.00,Wunderground v.1.15,2013-05-04 02:38:00,
2013-05-03 22:40:00,73.9,69.1,29.75,West,278,2.0,4.0,85,0.00,,,0.00,Wunderground v.1.15,2013-05-04 02:40:00,
2013-05-03 22:41:00,73.9,69.1,29.75,West,273,3.0,8.0,85,0.00,,,0.00,Wunderground v.1.15,2013-05-04 02:41:00,
2013-05-03 22:42:00,73.9,69.1,29.75,WNW,294,8.0,8.0,85,0.00,,,0.00,Wunderground v.1.15,2013-05-04 02:42:00,
2013-05-03 22:43:00,74.0,69.2,29.75,WSW,245,4.0,8.0,85,0.00,,,0.00,Wunderground v.1.15,2013-05-04 02:43:00,
2013-05-03 22:45:00,74.0,69.2,29.75,West,281,2.0,8.0,85,0.00,,,0.00,Wunderground v.1.15,2013-05-04 02:45:00,
2013-05-03 22:47:00,74.1,69.3,29.75,WNW,283,5.0,8.0,85,0.00,,,0.00,Wunderground v.1.15,2013-05-04 02:47:00,
2013-05-03 22:48:00,74.1,69.3,29.76,NNW,337,6.0,8.0,85,0.00,,,0.00,Wunderground v.1.15,2013-05-04 02:48:00,
2013-05-03 22:50:00,74.1,69.3,29.76,NNW,329,8.0,8.0,85,0.00,,,0.00,Wunderground v.1.15,2013-05-04 02:50:00,
2013-05-03 22:52:00,74.2,69.4,29.76,West,276,3.0,8.0,85,0.00,,,0.00,Wunderground v.1.15,2013-05-04 02:52:00,
2013-05-03 22:53:00,74.2,69.4,29.76,WNW,290,3.0,8.0,85,0.00,,,0.00,Wunderground v.1.15,2013-05-04 02:53:00,
2013-05-03 22:55:00,74.2,69.4,29.76,NW,307,5.0,8.0,85,0.00,,,0.00,Wunderground v.1.15,2013-05-04 02:55:00,
2013-05-03 22:57:00,74.2,69.4,29.76,WNW,293,2.0,9.0,85,0.00,,,0.00,Wunderground v.1.15,2013-05-04 02:57:00,
2013-05-03 22:58:00,74.3,69.5,29.76,WNW,301,5.0,9.0,85,0.00,,,0.00,Wunderground v.1.15,2013-05-04 02:58:00,
2013-05-03 23:00:00,74.3,69.8,29.76,WNW,301,2.0,5.0,86,0.00,,,0.00,Wunderground v.1.15,2013-05-04 03:00:00,
2013-05-03 23:01:00,74.3,69.8,29.76,West,280,1.0,5.0,86,0.00,,,0.00,Wunderground v.1.15,2013-05-04 03:01:00,
2013-05-03 23:02:00,74.3,69.8,29.76,West,276,3.0,7.0,86,0.00,,,0.00,Wunderground v.1.15,2013-05-04 03:02:00,
2013-05-03 23:03:00,74.4,69.9,29.76,West,270,1.0,7.0,86,0.00,,,0.00,Wunderground v.1.15,2013-05-04 03:03:00,
2013-05-03 23:04:00,74.4,69.9,29.76,West,280,3.0,7.0,86,0.00,,,0.00,Wunderground v.1.15,2013-05-04 03:04:00,
2013-05-03 23:06:00,74.4,69.9,29.75,West,281,4.0,9.0,86,0.00,,,0.00,Wunderground v.1.15,2013-05-04 03:06:00,
2013-05-03 23:07:00,74.4,69.9,29.75,WNW,283,5.0,9.0,86,0.00,,,0.00,Wunderground v.1.15,2013-05-04 03:07:00,
2013-05-03 23:08:00,74.4,69.9,29.75,WSW,257,4.0,9.0,86,0.00,,,0.00,Wunderground v.1.15,2013-05-04 03:08:00,
2013-05-03 23:09:00,74.4,69.9,29.75,West,263,5.0,9.0,86,0.00,,,0.00,Wunderground v.1.15,2013-05-04 03:09:00,
2013-05-03 23:11:00,74.4,69.9,29.75,West,267,4.0,10.0,86,0.00,,,0.00,Wunderground v.1.15,2013-05-04 03:11:00,
2013-05-03 23:12:00,74.4,69.9,29.75,WNW,290,3.0,10.0,86,0.00,,,0.00,Wunderground v.1.15,2013-05-04 03:12:00,
2013-05-03 23:14:00,74.4,69.9,29.75,West,269,4.0,10.0,86,0.00,,,0.00,Wunderground v.1.15,2013-05-04 03:14:00,
2013-05-03 23:16:00,74.4,69.9,29.75,WNW,301,4.0,10.0,86,0.00,,,0.00,Wunderground v.1.15,2013-05-04 03:16:00,
2013-05-03 23:17:00,74.4,69.9,29.75,WSW,252,4.0,10.0,86,0.00,,,0.00,Wunderground v.1.15,2013-05-04 03:17:00,
2013-05-03 23:19:00,74.4,69.9,29.75,WNW,283,1.0,10.0,86,0.00,,,0.00,Wunderground v.1.15,2013-05-04 03:19:00,
2013-05-03 23:21:00,74.4,69.9,29.75,WSW,246,5.0,8.0,86,0.00,,,0.00,Wunderground v.1.15,2013-05-04 03:21:00,
2013-05-03 23:22:00,74.4,69.9,29.75,NW,307,4.0,8.0,86,0.00,,,0.00,Wunderground v.1.15,2013-05-04 03:22:00,
2013-05-03 23:24:00,74.3,69.8,29.75,West,272,2.0,8.0,86,0.00,,,0.00,Wunderground v.1.15,2013-05-04 03:24:00,
2013-05-03 23:26:00,74.3,69.8,29.75,WNW,288,3.0,8.0,86,0.00,,,0.00,Wunderground v.1.15,2013-05-04 03:26:00,
2013-05-03 23:27:00,74.3,69.8,29.75,WNW,291,4.0,8.0,86,0.00,,,0.00,Wunderground v.1.15,2013-05-04 03:27:00,
2013-05-03 23:29:00,74.3,69.8,29.75,West,267,2.0,8.0,86,0.00,,,0.00,Wunderground v.1.15,2013-05-04 03:29:00,
2013-05-03 23:31:00,74.2,69.7,29.75,WNW,294,2.0,4.0,86,0.00,,,0.00,Wunderground v.1.15,2013-05-04 03:31:00,
2013-05-03 23:32:00,74.2,69.7,29.75,West,272,2.0,4.0,86,0.00,,,0.00,Wunderground v.1.15,2013-05-04 03:32:00,
2013-05-03 23:33:00,74.2,69.7,29.75,WNW,283,2.0,5.0,86,0.00,,,0.00,Wunderground v.1.15,2013-05-04 03:33:00,
2013-05-03 23:34:00,74.2,69.7,29.75,West,279,1.0,5.0,86,0.00,,,0.00,Wunderground v.1.15,2013-05-04 03:34:00,
2013-05-03 23:35:00,74.2,69.7,29.75,West,263,1.0,5.0,86,0.00,,,0.00,Wunderground v.1.15,2013-05-04 03:35:00,
2013-05-03 23:36:00,74.2,70.1,29.75,WNW,288,2.0,5.0,87,0.00,,,0.00,Wunderground v.1.15,2013-05-04 03:36:00,
2013-05-03 23:37:00,74.2,70.1,29.75,WNW,292,1.0,5.0,87,0.00,,,0.00,Wunderground v.1.15,2013-05-04 03:37:00,
2013-05-03 23:38:00,74.2,70.1,29.75,West,281,0.0,5.0,87,0.00,,,0.00,Wunderground v.1.15,2013-05-04 03:38:00,
2013-05-03 23:40:00,74.2,70.1,29.75,West,274,3.0,4.0,87,0.00,,,0.00,Wunderground v.1.15,2013-05-04 03:40:00,
2013-05-03 23:41:00,74.2,70.1,29.75,WNW,298,4.0,8.0,87,0.00,,,0.00,Wunderground v.1.15,2013-05-04 03:41:00,
2013-05-03 23:42:00,74.2,70.1,29.75,WNW,295,5.0,8.0,87,0.00,,,0.00,Wunderground v.1.15,2013-05-04 03:42:00,
2013-05-03 23:43:00,74.2,70.1,29.75,West,262,2.0,8.0,87,0.00,,,0.00,Wunderground v.1.15,2013-05-04 03:43:00,
2013-05-03 23:45:00,74.2,70.1,29.75,WNW,284,8.0,8.0,87,0.00,,,0.00,Wunderground v.1.15,2013-05-04 03:45:00,
2013-05-03 23:46:00,74.2,70.1,29.75,West,266,4.0,8.0,87,0.00,,,0.00,Wunderground v.1.15,2013-05-04 03:46:00,
2013-05-03 23:47:00,74.2,70.1,29.75,WNW,298,3.0,8.0,87,0.00,,,0.00,Wunderground v.1.15,2013-05-04 03:47:00,
2013-05-03 23:48:00,74.2,70.1,29.75,WNW,298,4.0,8.0,87,0.00,,,0.00,Wunderground v.1.15,2013-05-04 03:48:00,
2013-05-03 23:50:00,74.3,70.2,29.75,NW,314,6.0,6.0,87,0.00,,,0.00,Wunderground v.1.15,2013-05-04 03:50:00,
2013-05-03 23:52:00,74.2,70.1,29.75,NNW,337,3.0,7.0,87,0.00,,,0.00,Wunderground v.1.15,2013-05-04 03:52:00,
2013-05-03 23:54:00,73.9,69.1,29.75,NNE,16,4.0,8.0,85,0.00,,,0.00,Wunderground v.1.15,2013-05-04 03:54:00,
2013-05-03 23:55:00,73.7,68.9,29.75,NNE,22,3.0,8.0,85,0.00,,,0.00,Wunderground v.1.15,2013-05-04 03:55:00,
2013-05-03 23:57:00,73.5,68.7,29.75,NE,44,1.0,8.0,85,0.00,,,0.00,Wunderground v.1.15,2013-05-04 03:57:00,
2013-05-03 23:59:00,73.4,68.6,29.74,ENE,67,2.0,8.0,85,0.00,,,0.00,Wunderground v.1.15,2013-05-04 03:59:00,